Time,TemperatureF,DewpointF,PressureIn,WindDirection,WindDirectionDegrees,WindSpeedMPH,WindSpeedGustMPH,Humidity,HourlyPrecipIn,Conditions,Clouds,dailyrainin,SoftwareType,DateUTC
2013-01-31 00:00:00,38.0,27.6,30.13,North,0,0.0,0.0,66,0.00,,,0.00,WUHU216HW,2013-01-31 07:00:00,
2013-01-31 00:01:00,38.0,27.6,30.13,North,0,0.0,0.0,66,0.00,,,0.00,WUHU216HW,2013-01-31 07:01:00,
2013-01-31 00:02:00,38.0,27.6,30.13,North,0,0.0,0.0,66,0.00,,,0.00,WUHU216HW,2013-01-31 07:02:00,
2013-01-31 00:03:00,38.0,27.6,30.12,North,0,0.0,0.0,66,0.00,,,0.00,WUHU216HW,2013-01-31 07:03:00,
2013-01-31 00:06:00,38.0,27.6,30.12,North,0,0.0,0.0,66,0.00,,,0.00,WUHU216HW,2013-01-31 07:06:00,
2013-01-31 00:07:00,38.0,27.2,30.12,North,0,0.0,0.0,65,0.00,,,0.00,WUHU216HW,2013-01-31 07:07:00,
2013-01-31 00:09:00,38.2,27.0,30.12,North,0,0.0,0.0,64,0.00,,,0.00,WUHU216HW,2013-01-31 07:09:00,
2013-01-31 00:11:00,38.0,26.8,30.12,North,0,0.0,0.0,64,0.00,,,0.00,WUHU216HW,2013-01-31 07:11:00,
2013-01-31 00:12:00,38.0,26.8,30.12,North,0,0.0,0.0,64,0.00,,,0.00,WUHU216HW,2013-01-31 07:12:00,
2013-01-31 00:13:00,38.0,26.5,30.12,North,0,0.0,0.0,63,0.00,,,0.00,WUHU216HW,2013-01-31 07:13:00,
2013-01-31 00:15:00,37.8,26.3,30.13,North,0,0.0,0.0,63,0.00,,,0.00,WUHU216HW,2013-01-31 07:15:00,
2013-01-31 00:17:00,37.8,26.3,30.13,North,0,0.0,0.0,63,0.00,,,0.00,WUHU216HW,2013-01-31 07:17:00,
2013-01-31 00:18:00,37.8,26.3,30.13,North,0,0.0,0.0,63,0.00,,,0.00,WUHU216HW,2013-01-31 07:18:00,
2013-01-31 00:19:00,37.8,26.3,30.12,North,0,0.0,0.0,63,0.00,,,0.00,WUHU216HW,2013-01-31 07:19:00,
2013-01-31 00:20:00,37.8,26.3,30.13,North,0,0.0,0.0,63,0.00,,,0.00,WUHU216HW,2013-01-31 07:20:00,
2013-01-31 00:22:00,37.6,26.1,30.12,North,0,0.0,0.0,63,0.00,,,0.00,WUHU216HW,2013-01-31 07:22:00,
2013-01-31 00:23:00,37.6,26.1,30.12,North,0,0.0,0.0,63,0.00,,,0.00,WUHU216HW,2013-01-31 07:23:00,
2013-01-31 00:25:00,37.4,26.0,30.12,North,0,0.0,0.0,63,0.00,,,0.00,WUHU216HW,2013-01-31 07:25:00,
2013-01-31 00:27:00,37.4,26.0,30.12,North,0,0.0,0.0,63,0.00,,,0.00,WUHU216HW,2013-01-31 07:27:00,
2013-01-31 00:29:00,37.4,26.0,30.12,North,0,0.0,0.0,63,0.00,,,0.00,WUHU216HW,2013-01-31 07:29:00,
2013-01-31 00:30:00,37.4,26.0,30.12,North,0,0.0,0.0,63,0.00,,,0.00,WUHU216HW,2013-01-31 07:30:00,
2013-01-31 00:32:00,37.3,25.8,30.12,North,0,0.0,0.0,63,0.00,,,0.00,WUHU216HW,2013-01-31 07:32:00,
2013-01-31 00:34:00,37.3,26.2,30.12,North,0,0.0,0.0,64,0.00,,,0.00,WUHU216HW,2013-01-31 07:34:00,
2013-01-31 00:35:00,37.3,26.2,30.12,North,0,0.0,0.0,64,0.00,,,0.00,WUHU216HW,2013-01-31 07:35:00,
2013-01-31 00:38:00,37.3,26.6,30.12,North,0,0.0,0.0,65,0.00,,,0.00,WUHU216HW,2013-01-31 07:38:00,
2013-01-31 00:40:00,37.3,26.6,30.12,North,0,0.0,0.0,65,0.00,,,0.00,WUHU216HW,2013-01-31 07:40:00,
2013-01-31 00:41:00,37.3,26.6,30.12,North,0,0.0,0.0,65,0.00,,,0.00,WUHU216HW,2013-01-31 07:41:00,
2013-01-31 00:44:00,37.6,26.9,30.12,North,0,0.0,0.0,65,0.00,,,0.00,WUHU216HW,2013-01-31 07:44:00,
2013-01-31 00:46:00,37.6,26.9,30.12,North,0,0.0,0.0,65,0.00,,,0.00,WUHU216HW,2013-01-31 07:46:00,
2013-01-31 00:49:00,37.6,26.6,30.12,North,0,0.0,0.0,64,0.00,,,0.00,WUHU216HW,2013-01-31 07:49:00,
2013-01-31 00:51:00,37.4,26.4,30.13,North,0,0.0,0.0,64,0.00,,,0.00,WUHU216HW,2013-01-31 07:51:00,
2013-01-31 00:52:00,37.4,26.4,30.13,North,0,0.0,0.0,64,0.00,,,0.00,WUHU216HW,2013-01-31 07:52:00,
2013-01-31 00:55:00,37.3,26.2,30.13,North,0,0.0,0.0,64,0.00,,,0.00,WUHU216HW,2013-01-31 07:55:00,
2013-01-31 00:57:00,37.1,26.0,30.13,North,0,0.0,0.0,64,0.00,,,0.00,WUHU216HW,2013-01-31 07:57:00,
2013-01-31 00:58:00,37.1,26.0,30.13,North,0,0.0,0.0,64,0.00,,,0.00,WUHU216HW,2013-01-31 07:58:00,
2013-01-31 01:01:00,36.7,25.7,30.13,North,0,0.0,0.0,64,0.00,,,0.00,WUHU216HW,2013-01-31 08:01:00,
2013-01-31 01:02:00,36.7,25.7,30.13,North,0,0.0,0.0,64,0.00,,,0.00,WUHU216HW,2013-01-31 08:02:00,
2013-01-31 01:03:00,36.7,25.7,30.13,North,0,0.0,0.0,64,0.00,,,0.00,WUHU216HW,2013-01-31 08:03:00,
2013-01-31 01:06:00,36.4,26.5,30.13,North,0,0.0,0.0,67,0.00,,,0.00,WUHU216HW,2013-01-31 08:06:00,
2013-01-31 01:08:00,36.4,26.8,30.13,North,0,0.0,0.0,68,0.00,,,0.00,WUHU216HW,2013-01-31 08:08:00,
2013-01-31 01:09:00,36.4,27.2,30.13,North,0,0.0,0.0,69,0.00,,,0.00,WUHU216HW,2013-01-31 08:09:00,
2013-01-31 01:12:00,36.5,27.7,30.13,North,0,0.0,0.0,70,0.00,,,0.00,WUHU216HW,2013-01-31 08:12:00,
2013-01-31 01:13:00,36.7,27.2,30.13,North,0,0.0,0.0,68,0.00,,,0.00,WUHU216HW,2013-01-31 08:13:00,
2013-01-31 01:14:00,36.7,27.2,30.13,North,0,0.0,0.0,68,0.00,,,0.00,WUHU216HW,2013-01-31 08:14:00,
2013-01-31 01:18:00,36.7,27.2,30.13,North,0,0.0,0.0,68,0.00,,,0.00,WUHU216HW,2013-01-31 08:18:00,
2013-01-31 01:19:00,36.5,26.7,30.13,North,0,0.0,0.0,67,0.00,,,0.00,WUHU216HW,2013-01-31 08:19:00,
2013-01-31 01:20:00,36.5,26.7,30.13,North,0,0.0,0.0,67,0.00,,,0.00,WUHU216HW,2013-01-31 08:20:00,
2013-01-31 01:23:00,36.4,26.8,30.13,North,0,0.0,0.0,68,0.00,,,0.00,WUHU216HW,2013-01-31 08:23:00,
2013-01-31 01:24:00,36.4,26.8,30.13,North,0,0.0,0.0,68,0.00,,,0.00,WUHU216HW,2013-01-31 08:24:00,
2013-01-31 01:25:00,36.4,26.8,30.13,North,0,0.0,0.0,68,0.00,,,0.00,WUHU216HW,2013-01-31 08:25:00,
2013-01-31 01:26:00,36.4,26.8,30.13,North,0,0.0,0.0,68,0.00,,,0.00,WUHU216HW,2013-01-31 08:26:00,
2013-01-31 01:28:00,36.5,27.7,30.14,North,0,0.0,0.0,70,0.00,,,0.00,WUHU216HW,2013-01-31 08:28:00,
2013-01-31 01:30:00,36.7,27.6,30.14,North,0,0.0,0.0,69,0.00,,,0.00,WUHU216HW,2013-01-31 08:30:00,
2013-01-31 01:31:00,36.9,27.7,30.14,North,0,0.0,0.0,69,0.00,,,0.00,WUHU216HW,2013-01-31 08:31:00,
2013-01-31 01:32:00,36.9,27.7,30.14,North,0,0.0,0.0,69,0.00,,,0.00,WUHU216HW,2013-01-31 08:32:00,
2013-01-31 01:34:00,37.1,28.3,30.14,North,0,0.0,0.0,70,0.00,,,0.00,WUHU216HW,2013-01-31 08:34:00,
2013-01-31 01:35:00,37.4,28.6,30.14,North,0,0.0,0.0,70,0.00,,,0.00,WUHU216HW,2013-01-31 08:35:00,
2013-01-31 01:36:00,37.6,28.5,30.14,North,0,0.0,0.0,69,0.00,,,0.00,WUHU216HW,2013-01-31 08:36:00,
2013-01-31 01:37:00,37.6,28.5,30.14,North,0,0.0,0.0,69,0.00,,,0.00,WUHU216HW,2013-01-31 08:37:00,
2013-01-31 01:39:00,37.8,28.2,30.14,North,0,0.0,0.0,68,0.00,,,0.00,WUHU216HW,2013-01-31 08:39:00,
2013-01-31 01:41:00,37.8,27.8,30.14,North,0,0.0,0.0,67,0.00,,,0.00,WUHU216HW,2013-01-31 08:41:00,
2013-01-31 01:42:00,37.8,27.8,30.14,North,0,0.0,0.0,67,0.00,,,0.00,WUHU216HW,2013-01-31 08:42:00,
2013-01-31 01:44:00,37.8,27.8,30.14,North,0,0.0,0.0,67,0.00,,,0.00,WUHU216HW,2013-01-31 08:44:00,
2013-01-31 01:47:00,37.6,27.6,30.14,North,0,0.0,0.0,67,0.00,,,0.00,WUHU216HW,2013-01-31 08:47:00,
2013-01-31 01:48:00,37.4,27.5,30.14,North,0,0.0,0.0,67,0.00,,,0.00,WUHU216HW,2013-01-31 08:48:00,
2013-01-31 01:49:00,37.1,26.7,30.15,North,0,0.0,0.0,66,0.00,,,0.00,WUHU216HW,2013-01-31 08:49:00,
2013-01-31 01:52:00,36.9,26.6,30.15,North,0,0.0,0.0,66,0.00,,,0.00,WUHU216HW,2013-01-31 08:52:00,
2013-01-31 01:53:00,36.9,26.6,30.15,North,0,0.0,0.0,66,0.00,,,0.00,WUHU216HW,2013-01-31 08:53:00,
2013-01-31 01:55:00,36.5,26.3,30.15,North,0,0.0,0.0,66,0.00,,,0.00,WUHU216HW,2013-01-31 08:55:00,
2013-01-31 01:58:00,36.4,26.5,30.15,North,0,0.0,0.0,67,0.00,,,0.00,WUHU216HW,2013-01-31 08:58:00,
2013-01-31 01:59:00,36.4,26.5,30.15,North,0,0.0,0.0,67,0.00,,,0.00,WUHU216HW,2013-01-31 08:59:00,
2013-01-31 02:00:00,36.4,26.5,30.15,North,0,0.0,0.0,67,0.00,,,0.00,WUHU216HW,2013-01-31 09:00:00,
2013-01-31 02:04:00,36.0,26.1,30.16,North,0,0.0,0.0,67,0.00,,,0.00,WUHU216HW,2013-01-31 09:04:00,
2013-01-31 02:06:00,36.0,26.1,30.15,North,0,0.0,0.0,67,0.00,,,0.00,WUHU216HW,2013-01-31 09:06:00,
2013-01-31 02:09:00,35.8,25.9,30.15,North,0,0.0,0.0,67,0.00,,,0.00,WUHU216HW,2013-01-31 09:09:00,
2013-01-31 02:10:00,35.8,25.9,30.15,North,0,0.0,0.0,67,0.00,,,0.00,WUHU216HW,2013-01-31 09:10:00,
2013-01-31 02:11:00,35.8,25.9,30.15,North,0,0.0,0.0,67,0.00,,,0.00,WUHU216HW,2013-01-31 09:11:00,
2013-01-31 02:14:00,35.6,25.7,30.16,North,0,0.0,0.0,67,0.00,,,0.00,WUHU216HW,2013-01-31 09:14:00,
2013-01-31 02:15:00,35.6,25.7,30.16,North,0,0.0,0.0,67,0.00,,,0.00,WUHU216HW,2013-01-31 09:15:00,
2013-01-31 02:17:00,35.6,25.7,30.16,North,0,0.0,0.0,67,0.00,,,0.00,WUHU216HW,2013-01-31 09:17:00,
2013-01-31 02:20:00,35.3,25.7,30.16,North,0,0.0,0.0,68,0.00,,,0.00,WUHU216HW,2013-01-31 09:20:00,
2013-01-31 02:21:00,35.3,25.7,30.16,North,0,0.0,0.0,68,0.00,,,0.00,WUHU216HW,2013-01-31 09:21:00,
2013-01-31 02:22:00,35.3,25.7,30.16,North,0,0.0,0.0,68,0.00,,,0.00,WUHU216HW,2013-01-31 09:22:00,
2013-01-31 02:23:00,35.3,25.7,30.16,North,0,0.0,0.0,68,0.00,,,0.00,WUHU216HW,2013-01-31 09:23:00,
2013-01-31 02:25:00,35.1,25.6,30.16,North,0,0.0,0.0,68,0.00,,,0.00,WUHU216HW,2013-01-31 09:25:00,
2013-01-31 02:27:00,35.1,25.6,30.16,North,0,0.0,0.0,68,0.00,,,0.00,WUHU216HW,2013-01-31 09:27:00,
2013-01-31 02:28:00,35.1,25.6,30.16,North,0,0.0,0.0,68,0.00,,,0.00,WUHU216HW,2013-01-31 09:28:00,
2013-01-31 02:31:00,35.1,25.9,30.16,North,0,0.0,0.0,69,0.00,,,0.00,WUHU216HW,2013-01-31 09:31:00,
2013-01-31 02:33:00,34.9,26.1,30.16,North,0,0.0,0.0,70,0.00,,,0.00,WUHU216HW,2013-01-31 09:33:00,
2013-01-31 02:34:00,34.9,26.1,30.16,North,0,0.0,0.0,70,0.00,,,0.00,WUHU216HW,2013-01-31 09:34:00,
2013-01-31 02:37:00,34.9,26.1,30.16,North,0,0.0,0.0,70,0.00,,,0.00,WUHU216HW,2013-01-31 09:37:00,
2013-01-31 02:38:00,34.9,26.1,30.16,North,0,0.0,0.0,70,0.00,,,0.00,WUHU216HW,2013-01-31 09:38:00,
2013-01-31 02:39:00,34.9,26.7,30.16,North,0,0.0,0.0,72,0.00,,,0.00,WUHU216HW,2013-01-31 09:39:00,
2013-01-31 02:40:00,34.9,26.7,30.16,North,0,0.0,0.0,72,0.00,,,0.00,WUHU216HW,2013-01-31 09:40:00,
2013-01-31 02:42:00,34.9,26.7,30.16,North,0,0.0,0.0,72,0.00,,,0.00,WUHU216HW,2013-01-31 09:42:00,
2013-01-31 02:45:00,35.1,26.7,30.16,North,0,0.0,0.0,71,0.00,,,0.00,WUHU216HW,2013-01-31 09:45:00,
2013-01-31 02:46:00,35.1,26.7,30.16,North,0,0.0,0.0,71,0.00,,,0.00,WUHU216HW,2013-01-31 09:46:00,
2013-01-31 02:47:00,35.1,26.7,30.16,North,0,0.0,0.0,71,0.00,,,0.00,WUHU216HW,2013-01-31 09:47:00,
2013-01-31 02:50:00,35.1,26.7,30.16,North,0,0.0,0.0,71,0.00,,,0.00,WUHU216HW,2013-01-31 09:50:00,
2013-01-31 02:51:00,35.1,26.7,30.16,North,0,0.0,0.0,71,0.00,,,0.00,WUHU216HW,2013-01-31 09:51:00,
2013-01-31 02:53:00,34.9,26.5,30.16,North,0,0.0,0.0,71,0.00,,,0.00,WUHU216HW,2013-01-31 09:53:00,
2013-01-31 02:56:00,34.9,26.5,30.16,North,0,0.0,0.0,71,0.00,,,0.00,WUHU216HW,2013-01-31 09:56:00,
2013-01-31 02:58:00,34.9,26.7,30.16,North,0,0.0,0.0,72,0.00,,,0.00,WUHU216HW,2013-01-31 09:58:00,
2013-01-31 03:01:00,34.9,27.1,30.16,North,0,0.0,0.0,73,0.00,,,0.00,WUHU216HW,2013-01-31 10:01:00,
2013-01-31 03:02:00,34.9,27.1,30.16,North,0,0.0,0.0,73,0.00,,,0.00,WUHU216HW,2013-01-31 10:02:00,
2013-01-31 03:03:00,34.9,27.4,30.16,North,0,0.0,0.0,74,0.00,,,0.00,WUHU216HW,2013-01-31 10:03:00,
2013-01-31 03:04:00,34.9,27.7,30.16,North,0,0.0,0.0,75,0.00,,,0.00,WUHU216HW,2013-01-31 10:04:00,
2013-01-31 03:07:00,35.1,27.9,30.16,North,0,0.0,0.0,75,0.00,,,0.00,WUHU216HW,2013-01-31 10:07:00,
2013-01-31 03:09:00,35.3,28.1,30.16,North,0,0.0,0.0,75,0.00,,,0.00,WUHU216HW,2013-01-31 10:09:00,
2013-01-31 03:10:00,35.3,27.7,30.16,North,0,0.0,0.0,74,0.00,,,0.00,WUHU216HW,2013-01-31 10:10:00,
2013-01-31 03:12:00,35.3,27.7,30.16,North,0,0.0,0.0,74,0.00,,,0.00,WUHU216HW,2013-01-31 10:12:00,
2013-01-31 03:13:00,35.3,27.5,30.16,North,0,0.0,0.0,73,0.00,,,0.00,WUHU216HW,2013-01-31 10:13:00,
2013-01-31 03:14:00,35.5,27.6,30.16,North,0,0.0,0.0,73,0.00,,,0.00,WUHU216HW,2013-01-31 10:14:00,
2013-01-31 03:16:00,35.3,27.5,30.16,North,0,0.0,0.0,73,0.00,,,0.00,WUHU216HW,2013-01-31 10:16:00,
2013-01-31 03:17:00,35.3,27.5,30.16,North,0,0.0,0.0,73,0.00,,,0.00,WUHU216HW,2013-01-31 10:17:00,
2013-01-31 03:18:00,35.1,27.3,30.16,North,0,0.0,0.0,73,0.00,,,0.00,WUHU216HW,2013-01-31 10:18:00,
2013-01-31 03:19:00,35.1,27.3,30.16,North,0,0.0,0.0,73,0.00,,,0.00,WUHU216HW,2013-01-31 10:19:00,
2013-01-31 03:21:00,34.9,27.1,30.16,North,0,0.0,0.0,73,0.00,,,0.00,WUHU216HW,2013-01-31 10:21:00,
2013-01-31 03:22:00,34.9,27.1,30.16,North,0,0.0,0.0,73,0.00,,,0.00,WUHU216HW,2013-01-31 10:22:00,
2013-01-31 03:24:00,34.9,27.1,30.16,North,0,0.0,0.0,73,0.00,,,0.00,WUHU216HW,2013-01-31 10:24:00,
2013-01-31 03:26:00,34.7,26.9,30.16,North,0,0.0,0.0,73,0.00,,,0.00,WUHU216HW,2013-01-31 10:26:00,
2013-01-31 03:27:00,34.7,26.9,30.16,North,0,0.0,0.0,73,0.00,,,0.00,WUHU216HW,2013-01-31 10:27:00,
2013-01-31 03:28:00,34.7,26.9,30.16,North,0,0.0,0.0,73,0.00,,,0.00,WUHU216HW,2013-01-31 10:28:00,
2013-01-31 03:29:00,34.7,26.9,30.16,North,0,0.0,0.0,73,0.00,,,0.00,WUHU216HW,2013-01-31 10:29:00,
2013-01-31 03:31:00,34.7,26.9,30.16,North,0,0.0,0.0,73,0.00,,,0.00,WUHU216HW,2013-01-31 10:31:00,
2013-01-31 03:33:00,34.7,26.9,30.16,North,0,0.0,0.0,73,0.00,,,0.00,WUHU216HW,2013-01-31 10:33:00,
2013-01-31 03:34:00,34.7,26.9,30.16,North,0,0.0,0.0,73,0.00,,,0.00,WUHU216HW,2013-01-31 10:34:00,
2013-01-31 03:35:00,34.7,26.9,30.16,North,0,0.0,0.0,73,0.00,,,0.00,WUHU216HW,2013-01-31 10:35:00,
2013-01-31 03:37:00,34.7,26.9,30.15,North,0,0.0,0.0,73,0.00,,,0.00,WUHU216HW,2013-01-31 10:37:00,
2013-01-31 03:38:00,34.7,26.9,30.16,North,0,0.0,0.0,73,0.00,,,0.00,WUHU216HW,2013-01-31 10:38:00,
2013-01-31 03:40:00,34.7,26.6,30.16,North,0,0.0,0.0,72,0.00,,,0.00,WUHU216HW,2013-01-31 10:40:00,
2013-01-31 03:43:00,34.7,26.6,30.15,North,0,0.0,0.0,72,0.00,,,0.00,WUHU216HW,2013-01-31 10:43:00,
2013-01-31 03:44:00,34.7,26.6,30.15,North,0,0.0,0.0,72,0.00,,,0.00,WUHU216HW,2013-01-31 10:44:00,
2013-01-31 03:46:00,34.7,26.6,30.15,North,0,0.0,0.0,72,0.00,,,0.00,WUHU216HW,2013-01-31 10:46:00,
2013-01-31 03:49:00,34.9,27.1,30.15,North,0,0.0,0.0,73,0.00,,,0.00,WUHU216HW,2013-01-31 10:49:00,
2013-01-31 03:51:00,34.9,27.1,30.15,North,0,0.0,0.0,73,0.00,,,0.00,WUHU216HW,2013-01-31 10:51:00,
2013-01-31 03:54:00,35.1,26.9,30.15,North,0,0.0,0.0,72,0.00,,,0.00,WUHU216HW,2013-01-31 10:54:00,
2013-01-31 03:55:00,35.1,26.9,30.15,North,0,0.0,0.0,72,0.00,,,0.00,WUHU216HW,2013-01-31 10:55:00,
2013-01-31 03:56:00,35.1,26.9,30.15,North,0,0.0,0.0,72,0.00,,,0.00,WUHU216HW,2013-01-31 10:56:00,
2013-01-31 03:57:00,35.1,26.9,30.15,North,0,0.0,0.0,72,0.00,,,0.00,WUHU216HW,2013-01-31 10:57:00,
2013-01-31 03:59:00,35.1,26.9,30.15,North,0,0.0,0.0,72,0.00,,,0.00,WUHU216HW,2013-01-31 10:59:00,
2013-01-31 04:01:00,35.1,26.9,30.15,North,0,0.0,0.0,72,0.00,,,0.00,WUHU216HW,2013-01-31 11:01:00,
2013-01-31 04:02:00,35.1,26.9,30.15,North,0,0.0,0.0,72,0.00,,,0.00,WUHU216HW,2013-01-31 11:02:00,
2013-01-31 04:05:00,34.9,26.5,30.15,North,0,0.0,0.0,71,0.00,,,0.00,WUHU216HW,2013-01-31 11:05:00,
2013-01-31 04:06:00,34.9,26.5,30.15,North,0,0.0,0.0,71,0.00,,,0.00,WUHU216HW,2013-01-31 11:06:00,
2013-01-31 04:07:00,34.9,26.5,30.15,North,0,0.0,0.0,71,0.00,,,0.00,WUHU216HW,2013-01-31 11:07:00,
2013-01-31 04:08:00,34.9,26.5,30.15,North,0,0.0,0.0,71,0.00,,,0.00,WUHU216HW,2013-01-31 11:08:00,
2013-01-31 04:10:00,34.9,26.5,30.15,North,0,0.0,0.0,71,0.00,,,0.00,WUHU216HW,2013-01-31 11:10:00,
2013-01-31 04:11:00,34.9,26.5,30.15,North,0,0.0,0.0,71,0.00,,,0.00,WUHU216HW,2013-01-31 11:11:00,
2013-01-31 04:13:00,34.9,26.7,30.15,North,0,0.0,0.0,72,0.00,,,0.00,WUHU216HW,2013-01-31 11:13:00,
2013-01-31 04:14:00,34.9,26.7,30.15,North,0,0.0,0.0,72,0.00,,,0.00,WUHU216HW,2013-01-31 11:14:00,
2013-01-31 04:15:00,34.9,27.1,30.15,North,0,0.0,0.0,73,0.00,,,0.00,WUHU216HW,2013-01-31 11:15:00,
2013-01-31 04:17:00,34.9,27.1,30.14,North,0,0.0,0.0,73,0.00,,,0.00,WUHU216HW,2013-01-31 11:17:00,
2013-01-31 04:19:00,34.7,26.9,30.14,North,0,0.0,0.0,73,0.00,,,0.00,WUHU216HW,2013-01-31 11:19:00,
2013-01-31 04:20:00,34.7,26.9,30.14,North,0,0.0,0.0,73,0.00,,,0.00,WUHU216HW,2013-01-31 11:20:00,
2013-01-31 04:21:00,34.7,26.9,30.14,North,0,0.0,0.0,73,0.00,,,0.00,WUHU216HW,2013-01-31 11:21:00,
2013-01-31 04:23:00,34.7,26.9,30.14,North,0,0.0,0.0,73,0.00,,,0.00,WUHU216HW,2013-01-31 11:23:00,
2013-01-31 04:24:00,34.7,26.6,30.14,North,0,0.0,0.0,72,0.00,,,0.00,WUHU216HW,2013-01-31 11:24:00,
2013-01-31 04:26:00,34.7,26.6,30.14,North,0,0.0,0.0,72,0.00,,,0.00,WUHU216HW,2013-01-31 11:26:00,
2013-01-31 04:28:00,34.7,26.6,30.14,North,0,0.0,0.0,72,0.00,,,0.00,WUHU216HW,2013-01-31 11:28:00,
2013-01-31 04:29:00,34.6,26.4,30.14,North,0,0.0,0.0,72,0.00,,,0.00,WUHU216HW,2013-01-31 11:29:00,
2013-01-31 04:31:00,34.6,26.4,30.14,North,0,0.0,0.0,72,0.00,,,0.00,WUHU216HW,2013-01-31 11:31:00,
2013-01-31 04:32:00,34.6,26.4,30.14,North,0,0.0,0.0,72,0.00,,,0.00,WUHU216HW,2013-01-31 11:32:00,
2013-01-31 04:33:00,34.6,26.4,30.14,North,0,0.0,0.0,72,0.00,,,0.00,WUHU216HW,2013-01-31 11:33:00,
2013-01-31 04:35:00,34.4,26.2,30.14,North,0,0.0,0.0,72,0.00,,,0.00,WUHU216HW,2013-01-31 11:35:00,
2013-01-31 04:37:00,34.4,26.6,30.14,North,0,0.0,0.0,73,0.00,,,0.00,WUHU216HW,2013-01-31 11:37:00,
2013-01-31 04:38:00,34.4,26.6,30.14,North,0,0.0,0.0,73,0.00,,,0.00,WUHU216HW,2013-01-31 11:38:00,
2013-01-31 04:39:00,34.2,26.0,30.14,North,0,0.0,0.0,72,0.00,,,0.00,WUHU216HW,2013-01-31 11:39:00,
2013-01-31 04:40:00,34.2,26.0,30.14,North,0,0.0,0.0,72,0.00,,,0.00,WUHU216HW,2013-01-31 11:40:00,
2013-01-31 04:42:00,34.2,26.0,30.14,North,0,0.0,0.0,72,0.00,,,0.00,WUHU216HW,2013-01-31 11:42:00,
2013-01-31 04:44:00,34.2,26.0,30.15,North,0,0.0,0.0,72,0.00,,,0.00,WUHU216HW,2013-01-31 11:44:00,
2013-01-31 04:45:00,34.2,26.0,30.15,North,0,0.0,0.0,72,0.00,,,0.00,WUHU216HW,2013-01-31 11:45:00,
2013-01-31 04:46:00,34.2,26.0,30.14,North,0,0.0,0.0,72,0.00,,,0.00,WUHU216HW,2013-01-31 11:46:00,
2013-01-31 04:48:00,34.2,26.0,30.14,North,0,0.0,0.0,72,0.00,,,0.00,WUHU216HW,2013-01-31 11:48:00,
2013-01-31 04:49:00,34.2,26.0,30.14,North,0,0.0,0.0,72,0.00,,,0.00,WUHU216HW,2013-01-31 11:49:00,
2013-01-31 04:50:00,34.2,26.0,30.14,North,0,0.0,0.0,72,0.00,,,0.00,WUHU216HW,2013-01-31 11:50:00,
2013-01-31 04:51:00,34.2,26.0,30.14,North,0,0.0,0.0,72,0.00,,,0.00,WUHU216HW,2013-01-31 11:51:00,
2013-01-31 04:53:00,34.2,26.0,30.14,North,0,0.0,0.0,72,0.00,,,0.00,WUHU216HW,2013-01-31 11:53:00,
2013-01-31 04:55:00,34.0,25.8,30.14,North,0,0.0,0.0,72,0.00,,,0.00,WUHU216HW,2013-01-31 11:55:00,
2013-01-31 04:56:00,33.8,25.7,30.15,North,0,0.0,0.0,72,0.00,,,0.00,WUHU216HW,2013-01-31 11:56:00,
2013-01-31 04:58:00,33.8,25.7,30.15,North,0,0.0,0.0,72,0.00,,,0.00,WUHU216HW,2013-01-31 11:58:00,
2013-01-31 05:00:00,33.7,25.5,30.15,North,0,0.0,0.0,72,0.00,,,0.00,WUHU216HW,2013-01-31 12:00:00,
2013-01-31 05:02:00,33.5,25.4,30.15,North,0,0.0,0.0,72,0.00,,,0.00,WUHU216HW,2013-01-31 12:02:00,
2013-01-31 05:05:00,33.5,25.4,30.15,North,0,0.0,0.0,72,0.00,,,0.00,WUHU216HW,2013-01-31 12:05:00,
2013-01-31 05:06:00,33.5,25.4,30.15,North,0,0.0,0.0,72,0.00,,,0.00,WUHU216HW,2013-01-31 12:06:00,
2013-01-31 05:07:00,33.3,25.2,30.15,North,0,0.0,0.0,72,0.00,,,0.00,WUHU216HW,2013-01-31 12:07:00,
2013-01-31 05:11:00,33.1,25.0,30.14,North,0,0.0,0.0,72,0.00,,,0.00,WUHU216HW,2013-01-31 12:11:00,
2013-01-31 05:13:00,33.1,25.0,30.14,North,0,0.0,0.0,72,0.00,,,0.00,WUHU216HW,2013-01-31 12:13:00,
2013-01-31 05:14:00,33.1,25.0,30.14,North,0,0.0,0.0,72,0.00,,,0.00,WUHU216HW,2013-01-31 12:14:00,
2013-01-31 05:16:00,32.9,25.2,30.14,North,0,0.0,0.0,73,0.00,,,0.00,WUHU216HW,2013-01-31 12:16:00,
2013-01-31 05:17:00,32.9,25.2,30.14,North,0,0.0,0.0,73,0.00,,,0.00,WUHU216HW,2013-01-31 12:17:00,
2013-01-31 05:18:00,32.9,25.2,30.14,North,0,0.0,0.0,73,0.00,,,0.00,WUHU216HW,2013-01-31 12:18:00,
2013-01-31 05:20:00,32.9,25.2,30.14,North,0,0.0,0.0,73,0.00,,,0.00,WUHU216HW,2013-01-31 12:20:00,
2013-01-31 05:21:00,32.9,25.2,30.14,North,0,0.0,0.0,73,0.00,,,0.00,WUHU216HW,2013-01-31 12:21:00,
2013-01-31 05:22:00,32.9,25.2,30.14,North,0,0.0,0.0,73,0.00,,,0.00,WUHU216HW,2013-01-31 12:22:00,
2013-01-31 05:23:00,32.9,25.2,30.14,North,0,0.0,0.0,73,0.00,,,0.00,WUHU216HW,2013-01-31 12:23:00,
2013-01-31 05:25:00,32.9,25.2,30.14,North,0,0.0,0.0,73,0.00,,,0.00,WUHU216HW,2013-01-31 12:25:00,
2013-01-31 05:27:00,32.9,25.2,30.14,North,0,0.0,0.0,73,0.00,,,0.00,WUHU216HW,2013-01-31 12:27:00,
2013-01-31 05:28:00,32.9,25.2,30.14,North,0,0.0,0.0,73,0.00,,,0.00,WUHU216HW,2013-01-31 12:28:00,
2013-01-31 05:29:00,32.9,25.2,30.14,North,0,0.0,0.0,73,0.00,,,0.00,WUHU216HW,2013-01-31 12:29:00,
2013-01-31 05:31:00,32.9,25.2,30.14,North,0,0.0,0.0,73,0.00,,,0.00,WUHU216HW,2013-01-31 12:31:00,
2013-01-31 05:32:00,32.9,25.5,30.14,North,0,0.0,0.0,74,0.00,,,0.00,WUHU216HW,2013-01-31 12:32:00,
2013-01-31 05:33:00,32.9,25.8,30.14,North,0,0.0,0.0,75,0.00,,,0.00,WUHU216HW,2013-01-31 12:33:00,
2013-01-31 05:34:00,32.9,26.2,30.14,North,0,0.0,0.0,76,0.00,,,0.00,WUHU216HW,2013-01-31 12:34:00,
2013-01-31 05:36:00,32.9,26.2,30.14,North,0,0.0,0.0,76,0.00,,,0.00,WUHU216HW,2013-01-31 12:36:00,
2013-01-31 05:38:00,33.1,26.3,30.14,North,0,0.0,0.0,76,0.00,,,0.00,WUHU216HW,2013-01-31 12:38:00,
2013-01-31 05:41:00,33.3,26.5,30.14,North,0,0.0,0.0,76,0.00,,,0.00,WUHU216HW,2013-01-31 12:41:00,
2013-01-31 05:42:00,33.5,26.3,30.14,North,0,0.0,0.0,75,0.00,,,0.00,WUHU216HW,2013-01-31 12:42:00,
2013-01-31 05:44:00,33.5,26.3,30.14,North,0,0.0,0.0,75,0.00,,,0.00,WUHU216HW,2013-01-31 12:44:00,
2013-01-31 05:45:00,33.5,26.0,30.14,North,0,0.0,0.0,74,0.00,,,0.00,WUHU216HW,2013-01-31 12:45:00,
2013-01-31 05:46:00,33.5,26.0,30.14,North,0,0.0,0.0,74,0.00,,,0.00,WUHU216HW,2013-01-31 12:46:00,
2013-01-31 05:48:00,33.3,25.8,30.14,North,0,0.0,0.0,74,0.00,,,0.00,WUHU216HW,2013-01-31 12:48:00,
2013-01-31 05:49:00,33.3,25.8,30.14,North,0,0.0,0.0,74,0.00,,,0.00,WUHU216HW,2013-01-31 12:49:00,
2013-01-31 05:50:00,33.3,25.8,30.14,North,0,0.0,0.0,74,0.00,,,0.00,WUHU216HW,2013-01-31 12:50:00,
2013-01-31 05:52:00,33.3,25.8,30.14,North,0,0.0,0.0,74,0.00,,,0.00,WUHU216HW,2013-01-31 12:52:00,
2013-01-31 05:55:00,33.3,26.8,30.14,North,0,0.0,0.0,77,0.00,,,0.00,WUHU216HW,2013-01-31 12:55:00,
2013-01-31 05:57:00,33.5,26.6,30.14,North,0,0.0,0.0,76,0.00,,,0.00,WUHU216HW,2013-01-31 12:57:00,
2013-01-31 06:00:00,33.5,26.3,30.14,North,0,0.0,0.0,75,0.00,,,0.00,WUHU216HW,2013-01-31 13:00:00,
2013-01-31 06:01:00,33.5,26.3,30.14,North,0,0.0,0.0,75,0.00,,,0.00,WUHU216HW,2013-01-31 13:01:00,
2013-01-31 06:02:00,33.5,26.3,30.14,North,0,0.0,0.0,75,0.00,,,0.00,WUHU216HW,2013-01-31 13:02:00,
2013-01-31 06:03:00,33.5,26.3,30.14,North,0,0.0,0.0,75,0.00,,,0.00,WUHU216HW,2013-01-31 13:03:00,
2013-01-31 06:05:00,33.3,26.2,30.14,North,0,0.0,0.0,75,0.00,,,0.00,WUHU216HW,2013-01-31 13:05:00,
2013-01-31 06:07:00,33.3,25.8,30.14,North,0,0.0,0.0,74,0.00,,,0.00,WUHU216HW,2013-01-31 13:07:00,
2013-01-31 06:08:00,33.1,25.7,30.14,North,0,0.0,0.0,74,0.00,,,0.00,WUHU216HW,2013-01-31 13:08:00,
2013-01-31 06:11:00,33.1,25.7,30.14,North,0,0.0,0.0,74,0.00,,,0.00,WUHU216HW,2013-01-31 13:11:00,
2013-01-31 06:12:00,33.1,25.7,30.14,North,0,0.0,0.0,74,0.00,,,0.00,WUHU216HW,2013-01-31 13:12:00,
2013-01-31 06:13:00,33.1,26.0,30.14,North,0,0.0,0.0,75,0.00,,,0.00,WUHU216HW,2013-01-31 13:13:00,
2013-01-31 06:17:00,32.9,25.5,30.14,North,0,0.0,0.0,74,0.00,,,0.00,WUHU216HW,2013-01-31 13:17:00,
2013-01-31 06:18:00,32.9,25.5,30.14,North,0,0.0,0.0,74,0.00,,,0.00,WUHU216HW,2013-01-31 13:18:00,
2013-01-31 06:19:00,32.9,25.5,30.14,North,0,0.0,0.0,74,0.00,,,0.00,WUHU216HW,2013-01-31 13:19:00,
2013-01-31 06:22:00,32.8,25.4,30.14,North,0,0.0,0.0,74,0.00,,,0.00,WUHU216HW,2013-01-31 13:22:00,
2013-01-31 06:23:00,32.8,25.4,30.14,North,0,0.0,0.0,74,0.00,,,0.00,WUHU216HW,2013-01-31 13:23:00,
2013-01-31 06:24:00,32.8,25.4,30.14,North,0,0.0,0.0,74,0.00,,,0.00,WUHU216HW,2013-01-31 13:24:00,
2013-01-31 06:25:00,32.6,25.2,30.14,North,0,0.0,0.0,74,0.00,,,0.00,WUHU216HW,2013-01-31 13:25:00,
2013-01-31 06:28:00,32.6,25.5,30.14,North,0,0.0,0.0,75,0.00,,,0.00,WUHU216HW,2013-01-31 13:28:00,
2013-01-31 06:29:00,32.4,25.4,30.14,North,0,0.0,0.0,75,0.00,,,0.00,WUHU216HW,2013-01-31 13:29:00,
2013-01-31 06:31:00,32.4,25.7,30.14,North,0,0.0,0.0,76,0.00,,,0.00,WUHU216HW,2013-01-31 13:31:00,
2013-01-31 06:33:00,32.4,25.7,30.15,North,0,0.0,0.0,76,0.00,,,0.00,WUHU216HW,2013-01-31 13:33:00,
2013-01-31 06:34:00,32.4,25.7,30.15,North,0,0.0,0.0,76,0.00,,,0.00,WUHU216HW,2013-01-31 13:34:00,
2013-01-31 06:36:00,32.2,25.5,30.15,North,0,0.0,0.0,76,0.00,,,0.00,WUHU216HW,2013-01-31 13:36:00,
2013-01-31 06:39:00,32.4,25.7,30.15,North,0,0.0,0.0,76,0.00,,,0.00,WUHU216HW,2013-01-31 13:39:00,
2013-01-31 06:41:00,32.2,25.5,30.15,North,0,0.0,0.0,76,0.00,,,0.00,WUHU216HW,2013-01-31 13:41:00,
2013-01-31 06:42:00,32.2,25.5,30.15,North,0,0.0,0.0,76,0.00,,,0.00,WUHU216HW,2013-01-31 13:42:00,
2013-01-31 06:44:00,32.2,25.5,30.15,North,0,0.0,0.0,76,0.00,,,0.00,WUHU216HW,2013-01-31 13:44:00,
2013-01-31 06:45:00,32.4,25.7,30.15,North,0,0.0,0.0,76,0.00,,,0.00,WUHU216HW,2013-01-31 13:45:00,
2013-01-31 06:46:00,32.4,25.7,30.15,North,0,0.0,0.0,76,0.00,,,0.00,WUHU216HW,2013-01-31 13:46:00,
2013-01-31 06:47:00,32.4,25.7,30.15,North,0,0.0,0.0,76,0.00,,,0.00,WUHU216HW,2013-01-31 13:47:00,
2013-01-31 06:49:00,32.4,25.7,30.15,North,0,0.0,0.0,76,0.00,,,0.00,WUHU216HW,2013-01-31 13:49:00,
2013-01-31 06:51:00,32.4,25.7,30.14,North,0,0.0,0.0,76,0.00,,,0.00,WUHU216HW,2013-01-31 13:51:00,
2013-01-31 06:52:00,32.4,25.7,30.14,North,0,0.0,0.0,76,0.00,,,0.00,WUHU216HW,2013-01-31 13:52:00,
2013-01-31 06:53:00,32.4,25.7,30.14,North,0,0.0,0.0,76,0.00,,,0.00,WUHU216HW,2013-01-31 13:53:00,
2013-01-31 06:55:00,32.4,25.7,30.14,North,0,0.0,0.0,76,0.00,,,0.00,WUHU216HW,2013-01-31 13:55:00,
2013-01-31 06:57:00,32.6,26.2,30.14,North,0,0.0,0.0,77,0.00,,,0.00,WUHU216HW,2013-01-31 13:57:00,
2013-01-31 06:58:00,32.6,25.8,30.14,North,0,0.0,0.0,76,0.00,,,0.00,WUHU216HW,2013-01-31 13:58:00,
2013-01-31 07:00:00,32.6,25.8,30.14,North,0,0.0,0.0,76,0.00,,,0.00,WUHU216HW,2013-01-31 14:00:00,
2013-01-31 07:03:00,32.6,25.8,30.14,North,0,0.0,0.0,76,0.00,,,0.00,WUHU216HW,2013-01-31 14:03:00,
2013-01-31 07:04:00,32.6,25.8,30.14,North,0,0.0,0.0,76,0.00,,,0.00,WUHU216HW,2013-01-31 14:04:00,
2013-01-31 07:06:00,32.6,26.2,30.14,North,0,0.0,0.0,77,0.00,,,0.00,WUHU216HW,2013-01-31 14:06:00,
2013-01-31 07:08:00,32.6,26.2,30.14,North,0,0.0,0.0,77,0.00,,,0.00,WUHU216HW,2013-01-31 14:08:00,
2013-01-31 07:10:00,32.8,26.3,30.14,North,0,0.0,0.0,77,0.00,,,0.00,WUHU216HW,2013-01-31 14:10:00,
2013-01-31 07:11:00,32.6,25.8,30.14,North,0,0.0,0.0,76,0.00,,,0.00,WUHU216HW,2013-01-31 14:11:00,
2013-01-31 07:14:00,32.8,26.0,30.14,North,0,0.0,0.0,76,0.00,,,0.00,WUHU216HW,2013-01-31 14:14:00,
2013-01-31 07:15:00,32.8,26.0,30.14,North,0,0.0,0.0,76,0.00,,,0.00,WUHU216HW,2013-01-31 14:15:00,
2013-01-31 07:17:00,32.8,26.0,30.14,North,0,0.0,0.0,76,0.00,,,0.00,WUHU216HW,2013-01-31 14:17:00,
2013-01-31 07:18:00,32.8,26.3,30.14,North,0,0.0,0.0,77,0.00,,,0.00,WUHU216HW,2013-01-31 14:18:00,
2013-01-31 07:19:00,32.6,25.8,30.14,North,0,0.0,0.0,76,0.00,,,0.00,WUHU216HW,2013-01-31 14:19:00,
2013-01-31 07:20:00,32.8,26.0,30.14,North,0,0.0,0.0,76,0.00,,,0.00,WUHU216HW,2013-01-31 14:20:00,
2013-01-31 07:23:00,32.6,25.8,30.14,North,0,0.0,0.0,76,0.00,,,0.00,WUHU216HW,2013-01-31 14:23:00,
2013-01-31 07:24:00,32.6,25.8,30.14,North,0,0.0,0.0,76,0.00,,,0.00,WUHU216HW,2013-01-31 14:24:00,
2013-01-31 07:26:00,32.6,25.8,30.14,North,0,0.0,0.0,76,0.00,,,0.00,WUHU216HW,2013-01-31 14:26:00,
2013-01-31 07:28:00,32.6,25.8,30.14,North,0,0.0,0.0,76,0.00,,,0.00,WUHU216HW,2013-01-31 14:28:00,
2013-01-31 07:29:00,32.4,25.7,30.14,North,0,0.0,0.0,76,0.00,,,0.00,WUHU216HW,2013-01-31 14:29:00,
2013-01-31 07:31:00,32.4,25.7,30.14,North,0,0.0,0.0,76,0.00,,,0.00,WUHU216HW,2013-01-31 14:31:00,
2013-01-31 07:33:00,32.2,25.5,30.14,North,0,0.0,0.0,76,0.00,,,0.00,WUHU216HW,2013-01-31 14:33:00,
2013-01-31 07:34:00,32.2,25.5,30.14,North,0,0.0,0.0,76,0.00,,,0.00,WUHU216HW,2013-01-31 14:34:00,
2013-01-31 07:36:00,32.0,25.4,30.15,North,0,0.0,0.0,76,0.00,,,0.00,WUHU216HW,2013-01-31 14:36:00,
2013-01-31 07:38:00,32.0,25.4,30.14,North,0,0.0,0.0,76,0.00,,,0.00,WUHU216HW,2013-01-31 14:38:00,
2013-01-31 07:40:00,32.0,25.4,30.14,North,0,0.0,0.0,76,0.00,,,0.00,WUHU216HW,2013-01-31 14:40:00,
2013-01-31 07:43:00,32.0,25.4,30.14,North,0,0.0,0.0,76,0.00,,,0.00,WUHU216HW,2013-01-31 14:43:00,
2013-01-31 07:44:00,32.0,25.4,30.15,North,0,0.0,0.0,76,0.00,,,0.00,WUHU216HW,2013-01-31 14:44:00,
2013-01-31 07:45:00,32.0,25.4,30.14,North,0,0.0,0.0,76,0.00,,,0.00,WUHU216HW,2013-01-31 14:45:00,
2013-01-31 07:48:00,32.0,26.0,30.14,North,0,0.0,0.0,78,0.00,,,0.00,WUHU216HW,2013-01-31 14:48:00,
2013-01-31 07:49:00,32.0,26.0,30.14,North,0,0.0,0.0,78,0.00,,,0.00,WUHU216HW,2013-01-31 14:49:00,
2013-01-31 07:50:00,32.0,26.0,30.15,North,0,0.0,0.0,78,0.00,,,0.00,WUHU216HW,2013-01-31 14:50:00,
2013-01-31 07:54:00,32.2,26.2,30.15,North,0,0.0,0.0,78,0.00,,,0.00,WUHU216HW,2013-01-31 14:54:00,
2013-01-31 07:55:00,32.2,26.2,30.15,North,0,0.0,0.0,78,0.00,,,0.00,WUHU216HW,2013-01-31 14:55:00,
2013-01-31 08:00:00,32.6,26.5,30.15,North,0,0.0,0.0,78,0.00,,,0.00,WUHU216HW,2013-01-31 15:00:00,
2013-01-31 08:01:00,32.6,26.5,30.15,North,0,0.0,0.0,78,0.00,,,0.00,WUHU216HW,2013-01-31 15:01:00,
2013-01-31 08:05:00,32.8,26.6,30.15,North,0,0.0,0.0,78,0.00,,,0.00,WUHU216HW,2013-01-31 15:05:00,
2013-01-31 08:06:00,32.8,26.6,30.15,North,0,0.0,0.0,78,0.00,,,0.00,WUHU216HW,2013-01-31 15:06:00,
2013-01-31 08:07:00,32.8,26.6,30.15,North,0,0.0,0.0,78,0.00,,,0.00,WUHU216HW,2013-01-31 15:07:00,
2013-01-31 08:11:00,33.1,27.3,30.15,North,0,0.0,0.0,79,0.00,,,0.00,WUHU216HW,2013-01-31 15:11:00,
2013-01-31 08:12:00,33.5,27.6,30.15,North,0,0.0,0.0,79,0.00,,,0.00,WUHU216HW,2013-01-31 15:12:00,
2013-01-31 08:16:00,33.8,27.6,30.15,North,0,0.0,0.0,78,0.00,,,0.00,WUHU216HW,2013-01-31 15:16:00,
2013-01-31 08:17:00,33.8,27.6,30.15,North,0,0.0,0.0,78,0.00,,,0.00,WUHU216HW,2013-01-31 15:17:00,
2013-01-31 08:18:00,34.0,27.8,30.15,North,0,0.0,0.0,78,0.00,,,0.00,WUHU216HW,2013-01-31 15:18:00,
2013-01-31 08:22:00,34.4,28.2,30.15,North,0,0.0,0.0,78,0.00,,,0.00,WUHU216HW,2013-01-31 15:22:00,
2013-01-31 08:23:00,34.6,28.4,30.15,North,0,0.0,0.0,78,0.00,,,0.00,WUHU216HW,2013-01-31 15:23:00,
2013-01-31 08:24:00,34.6,28.4,30.15,North,0,0.0,0.0,78,0.00,,,0.00,WUHU216HW,2013-01-31 15:24:00,
2013-01-31 08:27:00,34.9,28.7,30.15,North,0,0.0,0.0,78,0.00,,,0.00,WUHU216HW,2013-01-31 15:27:00,
2013-01-31 08:29:00,35.1,28.9,30.15,North,0,0.0,0.0,78,0.00,,,0.00,WUHU216HW,2013-01-31 15:29:00,
2013-01-31 08:30:00,35.1,28.5,30.15,North,0,0.0,0.0,77,0.00,,,0.00,WUHU216HW,2013-01-31 15:30:00,
2013-01-31 08:33:00,35.5,28.9,30.15,North,0,0.0,0.0,77,0.00,,,0.00,WUHU216HW,2013-01-31 15:33:00,
2013-01-31 08:35:00,35.6,29.1,30.15,North,0,0.0,0.0,77,0.00,,,0.00,WUHU216HW,2013-01-31 15:35:00,
2013-01-31 08:36:00,35.8,29.3,30.15,North,0,0.0,0.0,77,0.00,,,0.00,WUHU216HW,2013-01-31 15:36:00,
2013-01-31 08:38:00,36.0,29.2,30.15,North,0,0.0,0.0,76,0.00,,,0.00,WUHU216HW,2013-01-31 15:38:00,
2013-01-31 08:40:00,36.4,29.5,30.15,North,0,0.0,0.0,76,0.00,,,0.00,WUHU216HW,2013-01-31 15:40:00,
2013-01-31 08:41:00,36.4,29.5,30.15,North,0,0.0,0.0,76,0.00,,,0.00,WUHU216HW,2013-01-31 15:41:00,
2013-01-31 08:42:00,36.4,29.5,30.15,North,0,0.0,0.0,76,0.00,,,0.00,WUHU216HW,2013-01-31 15:42:00,
2013-01-31 08:43:00,36.4,29.5,30.16,North,0,0.0,0.0,76,0.00,,,0.00,WUHU216HW,2013-01-31 15:43:00,
2013-01-31 08:46:00,36.7,30.2,30.16,North,0,0.0,0.0,77,0.00,,,0.00,WUHU216HW,2013-01-31 15:46:00,
2013-01-31 08:48:00,36.7,30.2,30.16,North,0,0.0,0.0,77,0.00,,,0.00,WUHU216HW,2013-01-31 15:48:00,
2013-01-31 08:49:00,36.9,30.1,30.16,North,0,0.0,0.0,76,0.00,,,0.00,WUHU216HW,2013-01-31 15:49:00,
2013-01-31 08:52:00,37.1,30.3,30.16,North,0,0.0,0.0,76,0.00,,,0.00,WUHU216HW,2013-01-31 15:52:00,
2013-01-31 08:53:00,37.1,30.3,30.16,North,0,0.0,0.0,76,0.00,,,0.00,WUHU216HW,2013-01-31 15:53:00,
2013-01-31 08:54:00,37.3,30.4,30.16,North,0,0.0,0.0,76,0.00,,,0.00,WUHU216HW,2013-01-31 15:54:00,
2013-01-31 08:59:00,37.8,30.6,30.16,North,0,0.0,0.0,75,0.00,,,0.00,WUHU216HW,2013-01-31 15:59:00,
2013-01-31 09:00:00,37.8,30.2,30.16,North,0,0.0,0.0,74,0.00,,,0.00,WUHU216HW,2013-01-31 16:00:00,
2013-01-31 09:04:00,38.0,30.4,30.16,North,0,0.0,0.0,74,0.00,,,0.00,WUHU216HW,2013-01-31 16:04:00,
2013-01-31 09:05:00,38.2,30.6,30.16,North,0,0.0,0.0,74,0.00,,,0.00,WUHU216HW,2013-01-31 16:05:00,
2013-01-31 09:06:00,38.2,30.6,30.16,North,0,0.0,0.0,74,0.00,,,0.00,WUHU216HW,2013-01-31 16:06:00,
2013-01-31 09:09:00,38.5,31.0,30.16,North,0,0.0,0.0,74,0.00,,,0.00,WUHU216HW,2013-01-31 16:09:00,
2013-01-31 09:10:00,38.5,31.0,30.16,North,0,0.0,0.0,74,0.00,,,0.00,WUHU216HW,2013-01-31 16:10:00,
2013-01-31 09:11:00,38.7,30.8,30.16,North,0,0.0,0.0,73,0.00,,,0.00,WUHU216HW,2013-01-31 16:11:00,
2013-01-31 09:14:00,39.1,31.2,30.15,North,0,0.0,0.0,73,0.00,,,0.00,WUHU216HW,2013-01-31 16:14:00,
2013-01-31 09:16:00,39.1,31.2,30.15,North,0,0.0,0.0,73,0.00,,,0.00,WUHU216HW,2013-01-31 16:16:00,
2013-01-31 09:18:00,39.2,31.0,30.15,North,0,0.0,0.0,72,0.00,,,0.00,WUHU216HW,2013-01-31 16:18:00,
2013-01-31 09:20:00,39.4,30.8,30.15,North,0,0.0,0.0,71,0.00,,,0.00,WUHU216HW,2013-01-31 16:20:00,
2013-01-31 09:21:00,39.6,31.0,30.16,North,0,0.0,0.0,71,0.00,,,0.00,WUHU216HW,2013-01-31 16:21:00,
2013-01-31 09:24:00,39.8,31.2,30.15,North,0,0.0,0.0,71,0.00,,,0.00,WUHU216HW,2013-01-31 16:24:00,
2013-01-31 09:26:00,40.0,31.3,30.15,North,0,0.0,0.0,71,0.00,,,0.00,WUHU216HW,2013-01-31 16:26:00,
2013-01-31 09:27:00,40.0,31.3,30.15,North,0,0.0,0.0,71,0.00,,,0.00,WUHU216HW,2013-01-31 16:27:00,
2013-01-31 09:29:00,40.3,31.3,30.15,North,0,0.0,0.0,70,0.00,,,0.00,WUHU216HW,2013-01-31 16:29:00,
2013-01-31 09:31:00,40.3,31.3,30.15,North,0,0.0,0.0,70,0.00,,,0.00,WUHU216HW,2013-01-31 16:31:00,
2013-01-31 09:32:00,40.1,31.1,30.15,North,0,0.0,0.0,70,0.00,,,0.00,WUHU216HW,2013-01-31 16:32:00,
2013-01-31 09:35:00,40.5,31.5,30.15,North,0,0.0,0.0,70,0.00,,,0.00,WUHU216HW,2013-01-31 16:35:00,
2013-01-31 09:36:00,40.5,31.5,30.15,North,0,0.0,0.0,70,0.00,,,0.00,WUHU216HW,2013-01-31 16:36:00,
2013-01-31 09:37:00,40.5,31.5,30.15,North,0,0.0,0.0,70,0.00,,,0.00,WUHU216HW,2013-01-31 16:37:00,
2013-01-31 09:40:00,40.7,31.3,30.15,North,0,0.0,0.0,69,0.00,,,0.00,WUHU216HW,2013-01-31 16:40:00,
2013-01-31 09:42:00,40.7,31.3,30.15,North,0,0.0,0.0,69,0.00,,,0.00,WUHU216HW,2013-01-31 16:42:00,
2013-01-31 09:43:00,40.9,31.5,30.15,North,0,0.0,0.0,69,0.00,,,0.00,WUHU216HW,2013-01-31 16:43:00,
2013-01-31 09:46:00,41.0,31.7,30.15,North,0,0.0,0.0,69,0.00,,,0.00,WUHU216HW,2013-01-31 16:46:00,
2013-01-31 09:48:00,41.4,31.7,30.15,North,0,0.0,0.0,68,0.00,,,0.00,WUHU216HW,2013-01-31 16:48:00,
2013-01-31 09:51:00,41.8,32.0,30.15,North,0,0.0,0.0,68,0.00,,,0.00,WUHU216HW,2013-01-31 16:51:00,
2013-01-31 09:53:00,41.9,32.1,30.15,North,0,0.0,0.0,68,0.00,,,0.00,WUHU216HW,2013-01-31 16:53:00,
2013-01-31 09:54:00,42.1,32.8,30.15,North,0,0.0,0.0,69,0.00,,,0.00,WUHU216HW,2013-01-31 16:54:00,
2013-01-31 09:56:00,42.1,32.3,30.15,North,0,0.0,0.0,68,0.00,,,0.00,WUHU216HW,2013-01-31 16:56:00,
2013-01-31 09:58:00,42.5,32.7,30.15,North,0,0.0,0.0,68,0.00,,,0.00,WUHU216HW,2013-01-31 16:58:00,
2013-01-31 09:59:00,42.5,32.3,30.15,North,0,0.0,0.0,67,0.00,,,0.00,WUHU216HW,2013-01-31 16:59:00,
2013-01-31 10:00:00,42.5,32.3,30.15,North,0,0.0,0.0,67,0.00,,,0.00,WUHU216HW,2013-01-31 17:00:00,
2013-01-31 10:01:00,42.5,32.3,30.15,North,0,0.0,0.0,67,0.00,,,0.00,WUHU216HW,2013-01-31 17:01:00,
2013-01-31 10:05:00,42.7,32.5,30.15,North,0,0.0,0.0,67,0.00,,,0.00,WUHU216HW,2013-01-31 17:05:00,
2013-01-31 10:07:00,42.8,32.7,30.15,North,0,0.0,0.0,67,0.00,,,0.00,WUHU216HW,2013-01-31 17:07:00,
2013-01-31 10:10:00,43.0,32.4,30.15,North,0,0.0,0.0,66,0.00,,,0.00,WUHU216HW,2013-01-31 17:10:00,
2013-01-31 10:11:00,43.2,32.6,30.15,North,0,0.0,0.0,66,0.00,,,0.00,WUHU216HW,2013-01-31 17:11:00,
2013-01-31 10:12:00,43.2,32.6,30.15,North,0,0.0,0.0,66,0.00,,,0.00,WUHU216HW,2013-01-31 17:12:00,
2013-01-31 10:15:00,43.6,33.0,30.15,North,0,0.0,0.0,66,0.00,,,0.00,WUHU216HW,2013-01-31 17:15:00,
2013-01-31 10:16:00,43.6,32.6,30.15,North,0,0.0,0.0,65,0.00,,,0.00,WUHU216HW,2013-01-31 17:16:00,
2013-01-31 10:17:00,43.7,32.8,30.15,North,0,0.0,0.0,65,0.00,,,0.00,WUHU216HW,2013-01-31 17:17:00,
2013-01-31 10:20:00,44.1,33.0,30.15,North,0,0.0,0.0,65,0.00,,,0.00,WUHU216HW,2013-01-31 17:20:00,
2013-01-31 10:21:00,44.3,33.2,30.15,North,0,0.0,0.0,65,0.00,,,0.00,WUHU216HW,2013-01-31 17:21:00,
2013-01-31 10:22:00,44.3,32.9,30.15,North,0,0.0,0.0,64,0.00,,,0.00,WUHU216HW,2013-01-31 17:22:00,
2013-01-31 10:23:00,44.3,32.9,30.15,North,0,0.0,0.0,64,0.00,,,0.00,WUHU216HW,2013-01-31 17:23:00,
2013-01-31 10:25:00,44.6,33.2,30.14,North,0,0.0,0.0,64,0.00,,,0.00,WUHU216HW,2013-01-31 17:25:00,
2013-01-31 10:27:00,44.8,32.9,30.15,North,0,0.0,0.0,63,0.00,,,0.00,WUHU216HW,2013-01-31 17:27:00,
2013-01-31 10:28:00,45.0,33.1,30.14,North,0,0.0,0.0,63,0.00,,,0.00,WUHU216HW,2013-01-31 17:28:00,
2013-01-31 10:31:00,45.4,33.5,30.15,North,0,0.0,0.0,63,0.00,,,0.00,WUHU216HW,2013-01-31 17:31:00,
2013-01-31 10:32:00,45.5,33.3,30.14,North,0,0.0,0.0,62,0.00,,,0.00,WUHU216HW,2013-01-31 17:32:00,
2013-01-31 10:34:00,45.5,33.3,30.14,North,0,0.0,0.0,62,0.00,,,0.00,WUHU216HW,2013-01-31 17:34:00,
2013-01-31 10:37:00,46.1,33.4,30.14,North,0,0.0,0.0,61,0.00,,,0.00,WUHU216HW,2013-01-31 17:37:00,
2013-01-31 10:40:00,46.4,33.7,30.14,North,0,0.0,0.0,61,0.00,,,0.00,WUHU216HW,2013-01-31 17:40:00,
2013-01-31 10:41:00,46.4,33.3,30.14,North,0,0.0,0.0,60,0.00,,,0.00,WUHU216HW,2013-01-31 17:41:00,
2013-01-31 10:42:00,46.6,33.5,30.14,North,0,0.0,0.0,60,0.00,,,0.00,WUHU216HW,2013-01-31 17:42:00,
2013-01-31 10:43:00,46.6,33.5,30.14,North,0,0.0,0.0,60,0.00,,,0.00,WUHU216HW,2013-01-31 17:43:00,
2013-01-31 10:45:00,46.8,33.2,30.14,North,0,0.0,0.0,59,0.00,,,0.00,WUHU216HW,2013-01-31 17:45:00,
2013-01-31 10:46:00,46.8,33.2,30.14,North,0,0.0,0.0,59,0.00,,,0.00,WUHU216HW,2013-01-31 17:46:00,
2013-01-31 10:48:00,47.0,33.4,30.14,North,0,0.0,0.0,59,0.00,,,0.00,WUHU216HW,2013-01-31 17:48:00,
2013-01-31 10:49:00,47.2,34.0,30.14,North,0,0.0,0.0,60,0.00,,,0.00,WUHU216HW,2013-01-31 17:49:00,
2013-01-31 10:50:00,47.2,33.6,30.14,North,0,0.0,0.0,59,0.00,,,0.00,WUHU216HW,2013-01-31 17:50:00,
2013-01-31 10:52:00,47.2,33.6,30.14,North,0,0.0,0.0,59,0.00,,,0.00,WUHU216HW,2013-01-31 17:52:00,
2013-01-31 10:53:00,47.2,33.6,30.14,North,0,0.0,0.0,59,0.00,,,0.00,WUHU216HW,2013-01-31 17:53:00,
2013-01-31 10:54:00,47.2,33.6,30.14,North,0,0.0,0.0,59,0.00,,,0.00,WUHU216HW,2013-01-31 17:54:00,
2013-01-31 10:55:00,47.5,33.9,30.14,North,0,0.0,0.0,59,0.00,,,0.00,WUHU216HW,2013-01-31 17:55:00,
2013-01-31 10:57:00,47.7,34.1,30.14,North,0,0.0,0.0,59,0.00,,,0.00,WUHU216HW,2013-01-31 17:57:00,
2013-01-31 10:59:00,47.9,34.3,30.14,North,0,0.0,0.0,59,0.00,,,0.00,WUHU216HW,2013-01-31 17:59:00,
2013-01-31 11:01:00,48.2,34.2,30.14,North,0,0.0,0.0,58,0.00,,,0.00,WUHU216HW,2013-01-31 18:01:00,
2013-01-31 11:03:00,48.2,33.7,30.14,North,0,0.0,0.0,57,0.00,,,0.00,WUHU216HW,2013-01-31 18:03:00,
2013-01-31 11:04:00,48.2,33.7,30.14,North,0,0.0,0.0,57,0.00,,,0.00,WUHU216HW,2013-01-31 18:04:00,
2013-01-31 11:06:00,48.6,34.0,30.14,North,0,0.0,0.0,57,0.00,,,0.00,WUHU216HW,2013-01-31 18:06:00,
2013-01-31 11:09:00,48.6,33.6,30.14,North,0,0.0,0.0,56,0.00,,,0.00,WUHU216HW,2013-01-31 18:09:00,
2013-01-31 11:10:00,48.6,33.6,30.14,North,0,0.0,0.0,56,0.00,,,0.00,WUHU216HW,2013-01-31 18:10:00,
2013-01-31 11:13:00,49.0,33.9,30.14,North,0,0.0,0.0,56,0.00,,,0.00,WUHU216HW,2013-01-31 18:13:00,
2013-01-31 11:14:00,49.1,34.1,30.14,North,0,0.0,0.0,56,0.00,,,0.00,WUHU216HW,2013-01-31 18:14:00,
2013-01-31 11:15:00,49.1,34.1,30.14,North,0,0.0,0.0,56,0.00,,,0.00,WUHU216HW,2013-01-31 18:15:00,
2013-01-31 11:18:00,49.5,33.9,30.14,North,0,0.0,0.0,55,0.00,,,0.00,WUHU216HW,2013-01-31 18:18:00,
2013-01-31 11:19:00,49.5,33.9,30.14,North,0,0.0,0.0,55,0.00,,,0.00,WUHU216HW,2013-01-31 18:19:00,
2013-01-31 11:20:00,49.5,33.9,30.14,North,0,0.0,0.0,55,0.00,,,0.00,WUHU216HW,2013-01-31 18:20:00,
2013-01-31 11:21:00,49.7,33.7,30.14,North,0,0.0,0.0,54,0.00,,,0.00,WUHU216HW,2013-01-31 18:21:00,
2013-01-31 11:24:00,50.0,34.0,30.14,North,0,0.0,0.0,54,0.00,,,0.00,WUHU216HW,2013-01-31 18:24:00,
2013-01-31 11:25:00,50.0,34.0,30.14,North,0,0.0,0.0,54,0.00,,,0.00,WUHU216HW,2013-01-31 18:25:00,
2013-01-31 11:27:00,50.2,34.2,30.14,North,0,0.0,0.0,54,0.00,,,0.00,WUHU216HW,2013-01-31 18:27:00,
2013-01-31 11:29:00,50.6,34.5,30.14,North,0,0.0,0.0,54,0.00,,,0.00,WUHU216HW,2013-01-31 18:29:00,
2013-01-31 11:30:00,50.8,34.7,30.14,North,0,0.0,0.0,54,0.00,,,0.00,WUHU216HW,2013-01-31 18:30:00,
2013-01-31 11:31:00,50.8,34.7,30.14,North,0,0.0,0.0,54,0.00,,,0.00,WUHU216HW,2013-01-31 18:31:00,
2013-01-31 11:32:00,50.8,34.7,30.14,North,0,0.0,0.0,54,0.00,,,0.00,WUHU216HW,2013-01-31 18:32:00,
2013-01-31 11:35:00,51.3,34.8,30.13,North,0,0.0,0.0,53,0.00,,,0.00,WUHU216HW,2013-01-31 18:35:00,
2013-01-31 11:36:00,51.5,34.8,30.13,North,0,0.0,0.0,53,0.00,,,0.00,WUHU216HW,2013-01-31 18:36:00,
2013-01-31 11:38:00,51.7,35.0,30.13,North,0,0.0,0.0,53,0.00,,,0.00,WUHU216HW,2013-01-31 18:38:00,
2013-01-31 11:40:00,51.8,34.7,30.14,North,0,0.0,0.0,52,0.00,,,0.00,WUHU216HW,2013-01-31 18:40:00,
2013-01-31 11:42:00,52.0,34.9,30.14,North,0,0.0,0.0,52,0.00,,,0.00,WUHU216HW,2013-01-31 18:42:00,
2013-01-31 11:43:00,52.2,34.7,30.14,North,0,0.0,0.0,51,0.00,,,0.00,WUHU216HW,2013-01-31 18:43:00,
2013-01-31 11:45:00,52.2,34.2,30.13,North,0,0.0,0.0,50,0.00,,,0.00,WUHU216HW,2013-01-31 18:45:00,
2013-01-31 11:47:00,52.4,34.3,30.14,North,0,0.0,0.0,50,0.00,,,0.00,WUHU216HW,2013-01-31 18:47:00,
2013-01-31 11:48:00,52.2,34.2,30.13,North,0,0.0,0.0,50,0.00,,,0.00,WUHU216HW,2013-01-31 18:48:00,
2013-01-31 11:50:00,52.2,33.6,30.13,North,0,0.0,0.0,49,0.00,,,0.00,WUHU216HW,2013-01-31 18:50:00,
2013-01-31 11:52:00,52.2,34.2,30.13,North,0,0.0,0.0,50,0.00,,,0.00,WUHU216HW,2013-01-31 18:52:00,
2013-01-31 11:53:00,52.2,34.2,30.13,North,0,0.0,0.0,50,0.00,,,0.00,WUHU216HW,2013-01-31 18:53:00,
2013-01-31 11:55:00,52.4,34.3,30.13,North,0,0.0,0.0,50,0.00,,,0.00,WUHU216HW,2013-01-31 18:55:00,
2013-01-31 11:57:00,52.6,34.5,30.13,North,0,0.0,0.0,50,0.00,,,0.00,WUHU216HW,2013-01-31 18:57:00,
2013-01-31 11:58:00,52.6,34.5,30.13,North,0,0.0,0.0,50,0.00,,,0.00,WUHU216HW,2013-01-31 18:58:00,
2013-01-31 12:00:00,52.6,34.5,30.13,North,0,0.0,0.0,50,0.00,,,0.00,WUHU216HW,2013-01-31 19:00:00,
2013-01-31 12:01:00,52.6,34.5,30.13,North,0,0.0,0.0,50,0.00,,,0.00,WUHU216HW,2013-01-31 19:01:00,
2013-01-31 12:02:00,52.7,34.7,30.13,North,0,0.0,0.0,50,0.00,,,0.00,WUHU216HW,2013-01-31 19:02:00,
2013-01-31 12:05:00,52.9,34.3,30.13,North,0,0.0,0.0,49,0.00,,,0.00,WUHU216HW,2013-01-31 19:05:00,
2013-01-31 12:07:00,52.9,33.7,30.13,North,0,0.0,0.0,48,0.00,,,0.00,WUHU216HW,2013-01-31 19:07:00,
2013-01-31 12:09:00,52.9,34.3,30.13,North,0,0.0,0.0,49,0.00,,,0.00,WUHU216HW,2013-01-31 19:09:00,
2013-01-31 12:11:00,53.1,34.4,30.13,North,0,0.0,0.0,49,0.00,,,0.00,WUHU216HW,2013-01-31 19:11:00,
2013-01-31 12:13:00,53.3,34.6,30.13,North,0,0.0,0.0,49,0.00,,,0.00,WUHU216HW,2013-01-31 19:13:00,
2013-01-31 12:14:00,53.3,34.6,30.13,North,0,0.0,0.0,49,0.00,,,0.00,WUHU216HW,2013-01-31 19:14:00,
2013-01-31 12:16:00,53.6,33.8,30.13,North,0,0.0,0.0,47,0.00,,,0.00,WUHU216HW,2013-01-31 19:16:00,
2013-01-31 12:18:00,53.6,34.4,30.13,North,0,0.0,0.0,48,0.00,,,0.00,WUHU216HW,2013-01-31 19:18:00,
2013-01-31 12:19:00,53.8,34.5,30.13,North,0,0.0,0.0,48,0.00,,,0.00,WUHU216HW,2013-01-31 19:19:00,
2013-01-31 12:22:00,54.0,34.1,30.13,North,0,0.0,0.0,47,0.00,,,0.00,WUHU216HW,2013-01-31 19:22:00,
2013-01-31 12:23:00,54.0,34.1,30.13,North,0,0.0,0.0,47,0.00,,,0.00,WUHU216HW,2013-01-31 19:23:00,
2013-01-31 12:25:00,54.0,34.1,30.13,North,0,0.0,0.0,47,0.00,,,0.00,WUHU216HW,2013-01-31 19:25:00,
2013-01-31 12:28:00,54.2,33.8,30.13,North,0,0.0,0.0,46,0.00,,,0.00,WUHU216HW,2013-01-31 19:28:00,
2013-01-31 12:31:00,54.4,33.8,30.13,North,0,0.0,0.0,46,0.00,,,0.00,WUHU216HW,2013-01-31 19:31:00,
2013-01-31 12:33:00,54.4,34.5,30.13,North,0,0.0,0.0,47,0.00,,,0.00,WUHU216HW,2013-01-31 19:33:00,
2013-01-31 12:36:00,54.5,34.0,30.13,North,0,0.0,0.0,46,0.00,,,0.00,WUHU216HW,2013-01-31 19:36:00,
2013-01-31 12:37:00,54.5,34.6,30.13,North,0,0.0,0.0,47,0.00,,,0.00,WUHU216HW,2013-01-31 19:37:00,
2013-01-31 12:38:00,54.7,34.2,30.13,North,0,0.0,0.0,46,0.00,,,0.00,WUHU216HW,2013-01-31 19:38:00,
2013-01-31 12:41:00,54.9,33.9,30.13,North,0,0.0,0.0,45,0.00,,,0.00,WUHU216HW,2013-01-31 19:41:00,
2013-01-31 12:42:00,54.9,33.9,30.13,North,0,0.0,0.0,45,0.00,,,0.00,WUHU216HW,2013-01-31 19:42:00,
2013-01-31 12:44:00,54.9,34.4,30.13,North,0,0.0,0.0,46,0.00,,,0.00,WUHU216HW,2013-01-31 19:44:00,
2013-01-31 12:46:00,55.1,33.9,30.13,North,0,0.0,0.0,45,0.00,,,0.00,WUHU216HW,2013-01-31 19:46:00,
2013-01-31 12:47:00,55.1,33.9,30.13,North,0,0.0,0.0,45,0.00,,,0.00,WUHU216HW,2013-01-31 19:47:00,
2013-01-31 12:50:00,55.3,34.1,30.13,North,0,0.0,0.0,45,0.00,,,0.00,WUHU216HW,2013-01-31 19:50:00,
2013-01-31 12:53:00,55.4,33.8,30.13,North,0,0.0,0.0,44,0.00,,,0.00,WUHU216HW,2013-01-31 19:53:00,
2013-01-31 12:55:00,55.6,33.9,30.13,North,0,0.0,0.0,44,0.00,,,0.00,WUHU216HW,2013-01-31 19:55:00,
2013-01-31 12:58:00,55.8,34.1,30.13,North,0,0.0,0.0,44,0.00,,,0.00,WUHU216HW,2013-01-31 19:58:00,
2013-01-31 12:59:00,55.8,34.1,30.12,North,0,0.0,0.0,44,0.00,,,0.00,WUHU216HW,2013-01-31 19:59:00,
2013-01-31 13:01:00,56.0,34.2,30.12,North,0,0.0,0.0,44,0.00,,,0.00,WUHU216HW,2013-01-31 20:01:00,
2013-01-31 13:03:00,56.2,33.8,30.12,North,0,0.0,0.0,43,0.00,,,0.00,WUHU216HW,2013-01-31 20:03:00,
2013-01-31 13:04:00,56.2,33.8,30.12,North,0,0.0,0.0,43,0.00,,,0.00,WUHU216HW,2013-01-31 20:04:00,
2013-01-31 13:05:00,56.2,33.8,30.12,North,0,0.0,0.0,43,0.00,,,0.00,WUHU216HW,2013-01-31 20:05:00,
2013-01-31 13:07:00,56.3,33.5,30.12,North,0,0.0,0.0,42,0.00,,,0.00,WUHU216HW,2013-01-31 20:07:00,
2013-01-31 13:09:00,56.3,34.0,30.12,North,0,0.0,0.0,43,0.00,,,0.00,WUHU216HW,2013-01-31 20:09:00,
2013-01-31 13:10:00,56.5,34.2,30.12,North,0,0.0,0.0,43,0.00,,,0.00,WUHU216HW,2013-01-31 20:10:00,
2013-01-31 13:13:00,56.5,34.2,30.12,North,0,0.0,0.0,43,0.00,,,0.00,WUHU216HW,2013-01-31 20:13:00,
2013-01-31 13:14:00,56.5,34.2,30.12,North,0,0.0,0.0,43,0.00,,,0.00,WUHU216HW,2013-01-31 20:14:00,
2013-01-31 13:16:00,56.7,34.4,30.12,North,0,0.0,0.0,43,0.00,,,0.00,WUHU216HW,2013-01-31 20:16:00,
2013-01-31 13:18:00,56.9,33.9,30.12,North,0,0.0,0.0,42,0.00,,,0.00,WUHU216HW,2013-01-31 20:18:00,
2013-01-31 13:20:00,56.9,32.8,30.12,North,0,0.0,0.0,40,0.00,,,0.00,WUHU216HW,2013-01-31 20:20:00,
2013-01-31 13:21:00,56.9,33.4,30.12,North,0,0.0,0.0,41,0.00,,,0.00,WUHU216HW,2013-01-31 20:21:00,
2013-01-31 13:24:00,56.9,33.9,30.12,North,0,0.0,0.0,42,0.00,,,0.00,WUHU216HW,2013-01-31 20:24:00,
2013-01-31 13:26:00,57.2,34.3,30.12,North,0,0.0,0.0,42,0.00,,,0.00,WUHU216HW,2013-01-31 20:26:00,
2013-01-31 13:27:00,57.2,34.3,30.12,North,0,0.0,0.0,42,0.00,,,0.00,WUHU216HW,2013-01-31 20:27:00,
2013-01-31 13:29:00,57.4,33.3,30.11,North,0,0.0,0.0,40,0.00,,,0.00,WUHU216HW,2013-01-31 20:29:00,
2013-01-31 13:31:00,57.4,33.3,30.11,North,0,0.0,0.0,40,0.00,,,0.00,WUHU216HW,2013-01-31 20:31:00,
2013-01-31 13:32:00,57.4,33.3,30.11,North,0,0.0,0.0,40,0.00,,,0.00,WUHU216HW,2013-01-31 20:32:00,
2013-01-31 13:34:00,57.6,34.0,30.11,North,0,0.0,0.0,41,0.00,,,0.00,WUHU216HW,2013-01-31 20:34:00,
2013-01-31 13:37:00,57.8,34.2,30.11,North,0,0.0,0.0,41,0.00,,,0.00,WUHU216HW,2013-01-31 20:37:00,
2013-01-31 13:38:00,58.0,34.4,30.11,North,0,0.0,0.0,41,0.00,,,0.00,WUHU216HW,2013-01-31 20:38:00,
2013-01-31 13:39:00,58.0,34.4,30.11,North,0,0.0,0.0,41,0.00,,,0.00,WUHU216HW,2013-01-31 20:39:00,
2013-01-31 13:43:00,58.1,33.2,30.11,North,0,0.0,0.0,39,0.00,,,0.00,WUHU216HW,2013-01-31 20:43:00,
2013-01-31 13:44:00,58.1,33.9,30.11,North,0,0.0,0.0,40,0.00,,,0.00,WUHU216HW,2013-01-31 20:44:00,
2013-01-31 13:45:00,58.1,33.2,30.11,North,0,0.0,0.0,39,0.00,,,0.00,WUHU216HW,2013-01-31 20:45:00,
2013-01-31 13:48:00,58.3,33.4,30.11,North,0,0.0,0.0,39,0.00,,,0.00,WUHU216HW,2013-01-31 20:48:00,
2013-01-31 13:49:00,58.3,33.4,30.10,North,0,0.0,0.0,39,0.00,,,0.00,WUHU216HW,2013-01-31 20:49:00,
2013-01-31 13:50:00,58.3,33.4,30.10,North,0,0.0,0.0,39,0.00,,,0.00,WUHU216HW,2013-01-31 20:50:00,
2013-01-31 13:51:00,58.3,32.7,30.10,North,0,0.0,0.0,38,0.00,,,0.00,WUHU216HW,2013-01-31 20:51:00,
2013-01-31 13:53:00,58.5,32.9,30.10,North,0,0.0,0.0,38,0.00,,,0.00,WUHU216HW,2013-01-31 20:53:00,
2013-01-31 13:54:00,58.5,32.1,30.10,North,0,0.0,0.0,37,0.00,,,0.00,WUHU216HW,2013-01-31 20:54:00,
2013-01-31 13:56:00,58.7,32.3,30.10,North,0,0.0,0.0,37,0.00,,,0.00,WUHU216HW,2013-01-31 20:56:00,
2013-01-31 13:57:00,58.7,32.3,30.10,North,0,0.0,0.0,37,0.00,,,0.00,WUHU216HW,2013-01-31 20:57:00,
2013-01-31 13:58:00,58.7,31.6,30.10,North,0,0.0,0.0,36,0.00,,,0.00,WUHU216HW,2013-01-31 20:58:00,
2013-01-31 13:59:00,58.7,31.6,30.10,North,0,0.0,0.0,36,0.00,,,0.00,WUHU216HW,2013-01-31 20:59:00,
2013-01-31 14:02:00,58.9,32.5,30.10,North,0,0.0,0.0,37,0.00,,,0.00,WUHU216HW,2013-01-31 21:02:00,
2013-01-31 14:03:00,58.7,32.3,30.10,North,0,0.0,0.0,37,0.00,,,0.00,WUHU216HW,2013-01-31 21:03:00,
2013-01-31 14:04:00,58.7,32.3,30.10,North,0,0.0,0.0,37,0.00,,,0.00,WUHU216HW,2013-01-31 21:04:00,
2013-01-31 14:05:00,58.7,32.3,30.10,North,0,0.0,0.0,37,0.00,,,0.00,WUHU216HW,2013-01-31 21:05:00,
2013-01-31 14:07:00,58.9,31.8,30.09,North,0,0.0,0.0,36,0.00,,,0.00,WUHU216HW,2013-01-31 21:07:00,
2013-01-31 14:08:00,58.9,31.8,30.09,North,0,0.0,0.0,36,0.00,,,0.00,WUHU216HW,2013-01-31 21:08:00,
2013-01-31 14:10:00,58.9,31.8,30.09,North,0,0.0,0.0,36,0.00,,,0.00,WUHU216HW,2013-01-31 21:10:00,
2013-01-31 14:12:00,58.9,31.8,30.09,North,0,0.0,0.0,36,0.00,,,0.00,WUHU216HW,2013-01-31 21:12:00,
2013-01-31 14:13:00,59.0,32.0,30.09,North,0,0.0,0.0,36,0.00,,,0.00,WUHU216HW,2013-01-31 21:13:00,
2013-01-31 14:14:00,59.0,32.0,30.09,North,0,0.0,0.0,36,0.00,,,0.00,WUHU216HW,2013-01-31 21:14:00,
2013-01-31 14:15:00,59.2,32.1,30.09,North,0,0.0,0.0,36,0.00,,,0.00,WUHU216HW,2013-01-31 21:15:00,
2013-01-31 14:18:00,59.4,32.2,30.09,North,0,0.0,0.0,36,0.00,,,0.00,WUHU216HW,2013-01-31 21:18:00,
2013-01-31 14:19:00,59.4,32.2,30.09,North,0,0.0,0.0,36,0.00,,,0.00,WUHU216HW,2013-01-31 21:19:00,
2013-01-31 14:20:00,59.4,32.2,30.09,North,0,0.0,0.0,36,0.00,,,0.00,WUHU216HW,2013-01-31 21:20:00,
2013-01-31 14:23:00,59.4,30.9,30.09,North,0,0.0,0.0,34,0.00,,,0.00,WUHU216HW,2013-01-31 21:23:00,
2013-01-31 14:25:00,59.6,31.0,30.09,North,0,0.0,0.0,34,0.00,,,0.00,WUHU216HW,2013-01-31 21:25:00,
2013-01-31 14:26:00,59.6,31.0,30.09,North,0,0.0,0.0,34,0.00,,,0.00,WUHU216HW,2013-01-31 21:26:00,
2013-01-31 14:29:00,59.8,30.4,30.09,North,0,0.0,0.0,33,0.00,,,0.00,WUHU216HW,2013-01-31 21:29:00,
2013-01-31 14:30:00,59.8,30.4,30.09,North,0,0.0,0.0,33,0.00,,,0.00,WUHU216HW,2013-01-31 21:30:00,
2013-01-31 14:31:00,59.8,30.4,30.09,North,0,0.0,0.0,33,0.00,,,0.00,WUHU216HW,2013-01-31 21:31:00,
2013-01-31 14:32:00,59.8,30.4,30.09,North,0,0.0,0.0,33,0.00,,,0.00,WUHU216HW,2013-01-31 21:32:00,
2013-01-31 14:36:00,59.9,29.2,30.09,North,0,0.0,0.0,31,0.00,,,0.00,WUHU216HW,2013-01-31 21:36:00,
2013-01-31 14:37:00,60.1,30.0,30.09,North,0,0.0,0.0,32,0.00,,,0.00,WUHU216HW,2013-01-31 21:37:00,
2013-01-31 14:38:00,59.9,29.9,30.09,North,0,0.0,0.0,32,0.00,,,0.00,WUHU216HW,2013-01-31 21:38:00,
2013-01-31 14:42:00,60.1,30.0,30.09,North,0,0.0,0.0,32,0.00,,,0.00,WUHU216HW,2013-01-31 21:42:00,
2013-01-31 14:43:00,60.3,29.4,30.09,North,0,0.0,0.0,31,0.00,,,0.00,WUHU216HW,2013-01-31 21:43:00,
2013-01-31 14:45:00,60.1,29.4,30.09,North,0,0.0,0.0,31,0.00,,,0.00,WUHU216HW,2013-01-31 21:45:00,
2013-01-31 14:47:00,60.3,29.4,30.09,North,0,0.0,0.0,31,0.00,,,0.00,WUHU216HW,2013-01-31 21:47:00,
2013-01-31 14:48:00,60.5,28.9,30.09,North,0,0.0,0.0,30,0.00,,,0.00,WUHU216HW,2013-01-31 21:48:00,
2013-01-31 14:49:00,60.5,28.9,30.08,North,0,0.0,0.0,30,0.00,,,0.00,WUHU216HW,2013-01-31 21:49:00,
2013-01-31 14:50:00,60.5,28.9,30.08,North,0,0.0,0.0,30,0.00,,,0.00,WUHU216HW,2013-01-31 21:50:00,
2013-01-31 14:52:00,60.5,29.6,30.08,North,0,0.0,0.0,31,0.00,,,0.00,WUHU216HW,2013-01-31 21:52:00,
2013-01-31 14:54:00,60.5,29.6,30.08,North,0,0.0,0.0,31,0.00,,,0.00,WUHU216HW,2013-01-31 21:54:00,
2013-01-31 14:55:00,60.5,29.6,30.08,North,0,0.0,0.0,31,0.00,,,0.00,WUHU216HW,2013-01-31 21:55:00,
2013-01-31 14:56:00,60.5,29.6,30.08,North,0,0.0,0.0,31,0.00,,,0.00,WUHU216HW,2013-01-31 21:56:00,
2013-01-31 14:58:00,60.5,28.9,30.08,North,0,0.0,0.0,30,0.00,,,0.00,WUHU216HW,2013-01-31 21:58:00,
2013-01-31 14:59:00,60.5,28.9,30.08,North,0,0.0,0.0,30,0.00,,,0.00,WUHU216HW,2013-01-31 21:59:00,
2013-01-31 15:00:00,60.5,28.9,30.08,North,0,0.0,0.0,30,0.00,,,0.00,WUHU216HW,2013-01-31 22:00:00,
2013-01-31 15:01:00,60.7,29.0,30.08,North,0,0.0,0.0,30,0.00,,,0.00,WUHU216HW,2013-01-31 22:01:00,
2013-01-31 15:03:00,60.5,28.9,30.08,North,0,0.0,0.0,30,0.00,,,0.00,WUHU216HW,2013-01-31 22:03:00,
2013-01-31 15:04:00,60.7,28.1,30.08,North,0,0.0,0.0,29,0.00,,,0.00,WUHU216HW,2013-01-31 22:04:00,
2013-01-31 15:06:00,60.7,27.1,30.08,North,0,0.0,0.0,28,0.00,,,0.00,WUHU216HW,2013-01-31 22:06:00,
2013-01-31 15:07:00,60.7,27.1,30.08,North,0,0.0,0.0,28,0.00,,,0.00,WUHU216HW,2013-01-31 22:07:00,
2013-01-31 15:08:00,60.7,27.1,30.08,North,0,0.0,0.0,28,0.00,,,0.00,WUHU216HW,2013-01-31 22:08:00,
2013-01-31 15:09:00,60.7,28.1,30.08,North,0,0.0,0.0,29,0.00,,,0.00,WUHU216HW,2013-01-31 22:09:00,
2013-01-31 15:12:00,60.7,28.1,30.08,North,0,0.0,0.0,29,0.00,,,0.00,WUHU216HW,2013-01-31 22:12:00,
2013-01-31 15:14:00,60.7,28.1,30.08,North,0,0.0,0.0,29,0.00,,,0.00,WUHU216HW,2013-01-31 22:14:00,
2013-01-31 15:16:00,60.7,28.1,30.08,North,0,0.0,0.0,29,0.00,,,0.00,WUHU216HW,2013-01-31 22:16:00,
2013-01-31 15:18:00,60.7,28.1,30.08,North,0,0.0,0.0,29,0.00,,,0.00,WUHU216HW,2013-01-31 22:18:00,
2013-01-31 15:20:00,60.7,28.1,30.08,North,0,0.0,0.0,29,0.00,,,0.00,WUHU216HW,2013-01-31 22:20:00,
2013-01-31 15:21:00,60.7,28.1,30.08,North,0,0.0,0.0,29,0.00,,,0.00,WUHU216HW,2013-01-31 22:21:00,
2013-01-31 15:23:00,60.7,28.1,30.08,North,0,0.0,0.0,29,0.00,,,0.00,WUHU216HW,2013-01-31 22:23:00,
2013-01-31 15:25:00,60.7,28.1,30.08,North,0,0.0,0.0,29,0.00,,,0.00,WUHU216HW,2013-01-31 22:25:00,
2013-01-31 15:26:00,60.7,28.1,30.07,North,0,0.0,0.0,29,0.00,,,0.00,WUHU216HW,2013-01-31 22:26:00,
2013-01-31 15:29:00,60.7,28.1,30.07,North,0,0.0,0.0,29,0.00,,,0.00,WUHU216HW,2013-01-31 22:29:00,
2013-01-31 15:31:00,60.5,27.9,30.07,North,0,0.0,0.0,29,0.00,,,0.00,WUHU216HW,2013-01-31 22:31:00,
2013-01-31 15:32:00,60.5,27.9,30.07,North,0,0.0,0.0,29,0.00,,,0.00,WUHU216HW,2013-01-31 22:32:00,
2013-01-31 15:35:00,60.7,28.1,30.07,North,0,0.0,0.0,29,0.00,,,0.00,WUHU216HW,2013-01-31 22:35:00,
2013-01-31 15:37:00,60.8,28.2,30.07,North,0,0.0,0.0,29,0.00,,,0.00,WUHU216HW,2013-01-31 22:37:00,
2013-01-31 15:38:00,60.8,28.2,30.07,North,0,0.0,0.0,29,0.00,,,0.00,WUHU216HW,2013-01-31 22:38:00,
2013-01-31 15:40:00,60.8,28.2,30.07,North,0,0.0,0.0,29,0.00,,,0.00,WUHU216HW,2013-01-31 22:40:00,
2013-01-31 15:41:00,60.8,28.2,30.07,North,0,0.0,0.0,29,0.00,,,0.00,WUHU216HW,2013-01-31 22:41:00,
2013-01-31 15:42:00,60.8,28.2,30.07,North,0,0.0,0.0,29,0.00,,,0.00,WUHU216HW,2013-01-31 22:42:00,
2013-01-31 15:43:00,60.8,28.2,30.07,North,0,0.0,0.0,29,0.00,,,0.00,WUHU216HW,2013-01-31 22:43:00,
2013-01-31 15:46:00,60.8,28.2,30.07,North,0,0.0,0.0,29,0.00,,,0.00,WUHU216HW,2013-01-31 22:46:00,
2013-01-31 15:47:00,60.8,28.2,30.07,North,0,0.0,0.0,29,0.00,,,0.00,WUHU216HW,2013-01-31 22:47:00,
2013-01-31 15:48:00,60.8,28.2,30.07,North,0,0.0,0.0,29,0.00,,,0.00,WUHU216HW,2013-01-31 22:48:00,
2013-01-31 15:51:00,60.8,28.2,30.06,North,0,0.0,0.0,29,0.00,,,0.00,WUHU216HW,2013-01-31 22:51:00,
2013-01-31 15:53:00,60.8,28.2,30.06,North,0,0.0,0.0,29,0.00,,,0.00,WUHU216HW,2013-01-31 22:53:00,
2013-01-31 15:54:00,60.8,28.2,30.07,North,0,0.0,0.0,29,0.00,,,0.00,WUHU216HW,2013-01-31 22:54:00,
2013-01-31 15:58:00,60.8,28.2,30.06,North,0,0.0,0.0,29,0.00,,,0.00,WUHU216HW,2013-01-31 22:58:00,
2013-01-31 15:59:00,60.8,28.2,30.06,North,0,0.0,0.0,29,0.00,,,0.00,WUHU216HW,2013-01-31 22:59:00,
2013-01-31 16:01:00,60.8,28.2,30.06,North,0,0.0,0.0,29,0.00,,,0.00,WUHU216HW,2013-01-31 23:01:00,
2013-01-31 16:03:00,60.8,28.2,30.06,North,0,0.0,0.0,29,0.00,,,0.00,WUHU216HW,2013-01-31 23:03:00,
2013-01-31 16:04:00,60.8,28.2,30.06,North,0,0.0,0.0,29,0.00,,,0.00,WUHU216HW,2013-01-31 23:04:00,
2013-01-31 16:05:00,61.0,28.4,30.06,North,0,0.0,0.0,29,0.00,,,0.00,WUHU216HW,2013-01-31 23:05:00,
2013-01-31 16:06:00,60.8,28.2,30.06,North,0,0.0,0.0,29,0.00,,,0.00,WUHU216HW,2013-01-31 23:06:00,
2013-01-31 16:09:00,60.8,28.2,30.06,North,0,0.0,0.0,29,0.00,,,0.00,WUHU216HW,2013-01-31 23:09:00,
2013-01-31 16:11:00,61.0,28.4,30.06,North,0,0.0,0.0,29,0.00,,,0.00,WUHU216HW,2013-01-31 23:11:00,
2013-01-31 16:12:00,61.0,28.4,30.06,North,0,0.0,0.0,29,0.00,,,0.00,WUHU216HW,2013-01-31 23:12:00,
2013-01-31 16:14:00,60.8,28.2,30.06,North,0,0.0,0.0,29,0.00,,,0.00,WUHU216HW,2013-01-31 23:14:00,
2013-01-31 16:16:00,60.8,28.2,30.06,North,0,0.0,0.0,29,0.00,,,0.00,WUHU216HW,2013-01-31 23:16:00,
2013-01-31 16:17:00,60.8,28.2,30.06,North,0,0.0,0.0,29,0.00,,,0.00,WUHU216HW,2013-01-31 23:17:00,
2013-01-31 16:19:00,60.8,25.4,30.06,North,0,0.0,0.0,26,0.00,,,0.00,WUHU216HW,2013-01-31 23:19:00,
2013-01-31 16:20:00,60.8,26.3,30.06,North,0,0.0,0.0,27,0.00,,,0.00,WUHU216HW,2013-01-31 23:20:00,
2013-01-31 16:21:00,60.8,27.3,30.06,North,0,0.0,0.0,28,0.00,,,0.00,WUHU216HW,2013-01-31 23:21:00,
2013-01-31 16:23:00,60.8,27.3,30.06,North,0,0.0,0.0,28,0.00,,,0.00,WUHU216HW,2013-01-31 23:23:00,
2013-01-31 16:25:00,60.8,27.3,30.06,North,0,0.0,0.0,28,0.00,,,0.00,WUHU216HW,2013-01-31 23:25:00,
2013-01-31 16:26:00,60.8,27.3,30.06,North,0,0.0,0.0,28,0.00,,,0.00,WUHU216HW,2013-01-31 23:26:00,
2013-01-31 16:27:00,60.8,28.2,30.06,North,0,0.0,0.0,29,0.00,,,0.00,WUHU216HW,2013-01-31 23:27:00,
2013-01-31 16:28:00,60.8,28.2,30.06,North,0,0.0,0.0,29,0.00,,,0.00,WUHU216HW,2013-01-31 23:28:00,
2013-01-31 16:30:00,60.8,28.2,30.06,North,0,0.0,0.0,29,0.00,,,0.00,WUHU216HW,2013-01-31 23:30:00,
2013-01-31 16:31:00,60.8,28.2,30.06,North,0,0.0,0.0,29,0.00,,,0.00,WUHU216HW,2013-01-31 23:31:00,
2013-01-31 16:32:00,60.8,28.2,30.06,North,0,0.0,0.0,29,0.00,,,0.00,WUHU216HW,2013-01-31 23:32:00,
2013-01-31 16:33:00,60.8,28.2,30.06,North,0,0.0,0.0,29,0.00,,,0.00,WUHU216HW,2013-01-31 23:33:00,
2013-01-31 16:36:00,60.8,28.2,30.06,North,0,0.0,0.0,29,0.00,,,0.00,WUHU216HW,2013-01-31 23:36:00,
2013-01-31 16:37:00,60.8,27.3,30.06,North,0,0.0,0.0,28,0.00,,,0.00,WUHU216HW,2013-01-31 23:37:00,
2013-01-31 16:40:00,60.8,27.3,30.05,North,0,0.0,0.0,28,0.00,,,0.00,WUHU216HW,2013-01-31 23:40:00,
2013-01-31 16:41:00,60.8,26.3,30.05,North,0,0.0,0.0,27,0.00,,,0.00,WUHU216HW,2013-01-31 23:41:00,
2013-01-31 16:42:00,60.8,27.3,30.05,North,0,0.0,0.0,28,0.00,,,0.00,WUHU216HW,2013-01-31 23:42:00,
2013-01-31 16:45:00,60.8,27.3,30.05,North,0,0.0,0.0,28,0.00,,,0.00,WUHU216HW,2013-01-31 23:45:00,
2013-01-31 16:46:00,60.8,27.3,30.05,North,0,0.0,0.0,28,0.00,,,0.00,WUHU216HW,2013-01-31 23:46:00,
2013-01-31 16:47:00,60.8,27.3,30.05,North,0,0.0,0.0,28,0.00,,,0.00,WUHU216HW,2013-01-31 23:47:00,
2013-01-31 16:49:00,60.8,27.3,30.05,North,0,0.0,0.0,28,0.00,,,0.00,WUHU216HW,2013-01-31 23:49:00,
2013-01-31 16:50:00,60.8,28.2,30.05,North,0,0.0,0.0,29,0.00,,,0.00,WUHU216HW,2013-01-31 23:50:00,
2013-01-31 16:51:00,60.8,28.2,30.05,North,0,0.0,0.0,29,0.00,,,0.00,WUHU216HW,2013-01-31 23:51:00,
2013-01-31 16:52:00,60.8,28.2,30.05,North,0,0.0,0.0,29,0.00,,,0.00,WUHU216HW,2013-01-31 23:52:00,
2013-01-31 16:55:00,60.8,28.2,30.05,North,0,0.0,0.0,29,0.00,,,0.00,WUHU216HW,2013-01-31 23:55:00,
2013-01-31 16:56:00,60.7,28.1,30.05,North,0,0.0,0.0,29,0.00,,,0.00,WUHU216HW,2013-01-31 23:56:00,
2013-01-31 16:57:00,60.5,27.0,30.05,North,0,0.0,0.0,28,0.00,,,0.00,WUHU216HW,2013-01-31 23:57:00,
2013-01-31 16:58:00,60.5,27.0,30.05,North,0,0.0,0.0,28,0.00,,,0.00,WUHU216HW,2013-01-31 23:58:00,
2013-01-31 17:01:00,60.3,27.8,30.05,North,0,0.0,0.0,29,0.00,,,0.00,WUHU216HW,2013-02-01 00:01:00,
2013-01-31 17:02:00,60.3,27.8,30.05,North,0,0.0,0.0,29,0.00,,,0.00,WUHU216HW,2013-02-01 00:02:00,
2013-01-31 17:03:00,60.3,27.8,30.05,North,0,0.0,0.0,29,0.00,,,0.00,WUHU216HW,2013-02-01 00:03:00,
2013-01-31 17:06:00,60.3,27.8,30.05,North,0,0.0,0.0,29,0.00,,,0.00,WUHU216HW,2013-02-01 00:06:00,
2013-01-31 17:07:00,60.3,27.8,30.05,North,0,0.0,0.0,29,0.00,,,0.00,WUHU216HW,2013-02-01 00:07:00,
2013-01-31 17:08:00,60.3,27.8,30.05,North,0,0.0,0.0,29,0.00,,,0.00,WUHU216HW,2013-02-01 00:08:00,
2013-01-31 17:11:00,60.1,28.6,30.05,North,0,0.0,0.0,30,0.00,,,0.00,WUHU216HW,2013-02-01 00:11:00,
2013-01-31 17:12:00,59.9,28.4,30.05,North,0,0.0,0.0,30,0.00,,,0.00,WUHU216HW,2013-02-01 00:12:00,
2013-01-31 17:13:00,59.9,28.4,30.05,North,0,0.0,0.0,30,0.00,,,0.00,WUHU216HW,2013-02-01 00:13:00,
2013-01-31 17:16:00,59.6,28.2,30.05,North,0,0.0,0.0,30,0.00,,,0.00,WUHU216HW,2013-02-01 00:16:00,
2013-01-31 17:18:00,59.4,28.0,30.05,North,0,0.0,0.0,30,0.00,,,0.00,WUHU216HW,2013-02-01 00:18:00,
2013-01-31 17:21:00,58.9,27.5,30.04,North,0,0.0,0.0,30,0.00,,,0.00,WUHU216HW,2013-02-01 00:21:00,
2013-01-31 17:23:00,58.7,27.4,30.04,North,0,0.0,0.0,30,0.00,,,0.00,WUHU216HW,2013-02-01 00:23:00,
2013-01-31 17:26:00,58.1,27.6,30.04,North,0,0.0,0.0,31,0.00,,,0.00,WUHU216HW,2013-02-01 00:26:00,
2013-01-31 17:27:00,58.0,27.5,30.05,North,0,0.0,0.0,31,0.00,,,0.00,WUHU216HW,2013-02-01 00:27:00,
2013-01-31 17:29:00,58.0,27.5,30.05,North,0,0.0,0.0,31,0.00,,,0.00,WUHU216HW,2013-02-01 00:29:00,
2013-01-31 17:31:00,57.4,27.0,30.04,North,0,0.0,0.0,31,0.00,,,0.00,WUHU216HW,2013-02-01 00:31:00,
2013-01-31 17:33:00,57.2,26.8,30.04,North,0,0.0,0.0,31,0.00,,,0.00,WUHU216HW,2013-02-01 00:33:00,
2013-01-31 17:34:00,57.2,26.8,30.04,North,0,0.0,0.0,31,0.00,,,0.00,WUHU216HW,2013-02-01 00:34:00,
2013-01-31 17:36:00,57.1,27.4,30.04,North,0,0.0,0.0,32,0.00,,,0.00,WUHU216HW,2013-02-01 00:36:00,
2013-01-31 17:38:00,57.1,26.6,30.04,North,0,0.0,0.0,31,0.00,,,0.00,WUHU216HW,2013-02-01 00:38:00,
2013-01-31 17:39:00,57.1,26.6,30.04,North,0,0.0,0.0,31,0.00,,,0.00,WUHU216HW,2013-02-01 00:39:00,
2013-01-31 17:40:00,56.9,26.5,30.04,North,0,0.0,0.0,31,0.00,,,0.00,WUHU216HW,2013-02-01 00:40:00,
2013-01-31 17:43:00,56.7,26.3,30.04,North,0,0.0,0.0,31,0.00,,,0.00,WUHU216HW,2013-02-01 00:43:00,
2013-01-31 17:45:00,56.7,26.3,30.04,North,0,0.0,0.0,31,0.00,,,0.00,WUHU216HW,2013-02-01 00:45:00,
2013-01-31 17:48:00,56.5,26.8,30.04,North,0,0.0,0.0,32,0.00,,,0.00,WUHU216HW,2013-02-01 00:48:00,
2013-01-31 17:49:00,56.3,26.7,30.04,North,0,0.0,0.0,32,0.00,,,0.00,WUHU216HW,2013-02-01 00:49:00,
2013-01-31 17:50:00,56.2,25.8,30.04,North,0,0.0,0.0,31,0.00,,,0.00,WUHU216HW,2013-02-01 00:50:00,
2013-01-31 17:51:00,56.2,26.6,30.04,North,0,0.0,0.0,32,0.00,,,0.00,WUHU216HW,2013-02-01 00:51:00,
2013-01-31 17:54:00,55.8,26.2,30.04,North,0,0.0,0.0,32,0.00,,,0.00,WUHU216HW,2013-02-01 00:54:00,
2013-01-31 17:55:00,55.8,26.2,30.04,North,0,0.0,0.0,32,0.00,,,0.00,WUHU216HW,2013-02-01 00:55:00,
2013-01-31 17:56:00,55.8,26.2,30.04,North,0,0.0,0.0,32,0.00,,,0.00,WUHU216HW,2013-02-01 00:56:00,
2013-01-31 18:00:00,55.6,26.7,30.04,North,0,0.0,0.0,33,0.00,,,0.00,WUHU216HW,2013-02-01 01:00:00,
2013-01-31 18:01:00,55.4,26.6,30.04,North,0,0.0,0.0,33,0.00,,,0.00,WUHU216HW,2013-02-01 01:01:00,
2013-01-31 18:06:00,55.1,27.0,30.04,North,0,0.0,0.0,34,0.00,,,0.00,WUHU216HW,2013-02-01 01:06:00,
2013-01-31 18:07:00,55.1,27.0,30.04,North,0,0.0,0.0,34,0.00,,,0.00,WUHU216HW,2013-02-01 01:07:00,
2013-01-31 18:12:00,54.9,26.8,30.04,North,0,0.0,0.0,34,0.00,,,0.00,WUHU216HW,2013-02-01 01:12:00,
2013-01-31 18:13:00,54.9,26.8,30.04,North,0,0.0,0.0,34,0.00,,,0.00,WUHU216HW,2013-02-01 01:13:00,
2013-01-31 18:17:00,54.7,26.6,30.04,North,0,0.0,0.0,34,0.00,,,0.00,WUHU216HW,2013-02-01 01:17:00,
2013-01-31 18:18:00,54.7,27.4,30.04,North,0,0.0,0.0,35,0.00,,,0.00,WUHU216HW,2013-02-01 01:18:00,
2013-01-31 18:19:00,54.7,27.4,30.04,North,0,0.0,0.0,35,0.00,,,0.00,WUHU216HW,2013-02-01 01:19:00,
2013-01-31 18:22:00,54.4,27.7,30.04,North,0,0.0,0.0,36,0.00,,,0.00,WUHU216HW,2013-02-01 01:22:00,
2013-01-31 18:23:00,54.4,27.7,30.04,North,0,0.0,0.0,36,0.00,,,0.00,WUHU216HW,2013-02-01 01:23:00,
2013-01-31 18:24:00,54.4,27.7,30.04,North,0,0.0,0.0,36,0.00,,,0.00,WUHU216HW,2013-02-01 01:24:00,
2013-01-31 18:28:00,54.2,27.6,30.04,North,0,0.0,0.0,36,0.00,,,0.00,WUHU216HW,2013-02-01 01:28:00,
2013-01-31 18:29:00,54.2,27.6,30.04,North,0,0.0,0.0,36,0.00,,,0.00,WUHU216HW,2013-02-01 01:29:00,
2013-01-31 18:30:00,54.0,27.5,30.04,North,0,0.0,0.0,36,0.00,,,0.00,WUHU216HW,2013-02-01 01:30:00,
2013-01-31 18:33:00,53.8,27.3,30.04,North,0,0.0,0.0,36,0.00,,,0.00,WUHU216HW,2013-02-01 01:33:00,
2013-01-31 18:35:00,53.8,28.0,30.04,North,0,0.0,0.0,37,0.00,,,0.00,WUHU216HW,2013-02-01 01:35:00,
2013-01-31 18:36:00,53.6,27.8,30.04,North,0,0.0,0.0,37,0.00,,,0.00,WUHU216HW,2013-02-01 01:36:00,
2013-01-31 18:39:00,53.6,27.8,30.04,North,0,0.0,0.0,37,0.00,,,0.00,WUHU216HW,2013-02-01 01:39:00,
2013-01-31 18:41:00,53.6,27.8,30.04,North,0,0.0,0.0,37,0.00,,,0.00,WUHU216HW,2013-02-01 01:41:00,
2013-01-31 18:44:00,53.6,27.8,30.04,North,0,0.0,0.0,37,0.00,,,0.00,WUHU216HW,2013-02-01 01:44:00,
2013-01-31 18:46:00,53.5,27.6,30.04,North,0,0.0,0.0,37,0.00,,,0.00,WUHU216HW,2013-02-01 01:46:00,
2013-01-31 18:47:00,53.5,27.6,30.04,North,0,0.0,0.0,37,0.00,,,0.00,WUHU216HW,2013-02-01 01:47:00,
2013-01-31 18:50:00,53.3,28.2,30.04,North,0,0.0,0.0,38,0.00,,,0.00,WUHU216HW,2013-02-01 01:50:00,
2013-01-31 18:51:00,53.3,28.2,30.05,North,0,0.0,0.0,38,0.00,,,0.00,WUHU216HW,2013-02-01 01:51:00,
2013-01-31 18:52:00,53.3,28.2,30.05,North,0,0.0,0.0,38,0.00,,,0.00,WUHU216HW,2013-02-01 01:52:00,
2013-01-31 18:55:00,53.3,28.2,30.05,North,0,0.0,0.0,38,0.00,,,0.00,WUHU216HW,2013-02-01 01:55:00,
2013-01-31 18:56:00,53.3,28.2,30.05,North,0,0.0,0.0,38,0.00,,,0.00,WUHU216HW,2013-02-01 01:56:00,
2013-01-31 18:57:00,53.3,28.2,30.05,North,0,0.0,0.0,38,0.00,,,0.00,WUHU216HW,2013-02-01 01:57:00,
2013-01-31 18:58:00,53.1,28.0,30.05,North,0,0.0,0.0,38,0.00,,,0.00,WUHU216HW,2013-02-01 01:58:00,
2013-01-31 19:01:00,53.1,28.0,30.05,North,0,0.0,0.0,38,0.00,,,0.00,WUHU216HW,2013-02-01 02:01:00,
2013-01-31 19:02:00,53.1,28.0,30.05,North,0,0.0,0.0,38,0.00,,,0.00,WUHU216HW,2013-02-01 02:02:00,
2013-01-31 19:04:00,52.9,27.9,30.05,North,0,0.0,0.0,38,0.00,,,0.00,WUHU216HW,2013-02-01 02:04:00,
2013-01-31 19:07:00,52.9,28.5,30.05,North,0,0.0,0.0,39,0.00,,,0.00,WUHU216HW,2013-02-01 02:07:00,
2013-01-31 19:08:00,52.9,28.5,30.05,North,0,0.0,0.0,39,0.00,,,0.00,WUHU216HW,2013-02-01 02:08:00,
2013-01-31 19:11:00,52.9,28.5,30.05,North,0,0.0,0.0,39,0.00,,,0.00,WUHU216HW,2013-02-01 02:11:00,
2013-01-31 19:13:00,52.7,28.4,30.05,North,0,0.0,0.0,39,0.00,,,0.00,WUHU216HW,2013-02-01 02:13:00,
2013-01-31 19:14:00,52.7,28.4,30.05,North,0,0.0,0.0,39,0.00,,,0.00,WUHU216HW,2013-02-01 02:14:00,
2013-01-31 19:18:00,52.4,28.1,30.05,North,0,0.0,0.0,39,0.00,,,0.00,WUHU216HW,2013-02-01 02:18:00,
2013-01-31 19:19:00,52.4,28.1,30.06,North,0,0.0,0.0,39,0.00,,,0.00,WUHU216HW,2013-02-01 02:19:00,
2013-01-31 19:23:00,52.2,28.6,30.06,North,0,0.0,0.0,40,0.00,,,0.00,WUHU216HW,2013-02-01 02:23:00,
2013-01-31 19:24:00,52.2,28.6,30.06,North,0,0.0,0.0,40,0.00,,,0.00,WUHU216HW,2013-02-01 02:24:00,
2013-01-31 19:25:00,52.2,28.6,30.06,North,0,0.0,0.0,40,0.00,,,0.00,WUHU216HW,2013-02-01 02:25:00,
2013-01-31 19:28:00,52.0,28.5,30.06,North,0,0.0,0.0,40,0.00,,,0.00,WUHU216HW,2013-02-01 02:28:00,
2013-01-31 19:29:00,52.0,28.5,30.06,North,0,0.0,0.0,40,0.00,,,0.00,WUHU216HW,2013-02-01 02:29:00,
2013-01-31 19:30:00,51.8,28.3,30.06,North,0,0.0,0.0,40,0.00,,,0.00,WUHU216HW,2013-02-01 02:30:00,
2013-01-31 19:31:00,51.8,28.3,30.06,North,0,0.0,0.0,40,0.00,,,0.00,WUHU216HW,2013-02-01 02:31:00,
2013-01-31 19:34:00,51.5,27.9,30.06,North,0,0.0,0.0,40,0.00,,,0.00,WUHU216HW,2013-02-01 02:34:00,
2013-01-31 19:35:00,51.5,27.9,30.06,North,0,0.0,0.0,40,0.00,,,0.00,WUHU216HW,2013-02-01 02:35:00,
2013-01-31 19:38:00,51.1,27.6,30.06,North,0,0.0,0.0,40,0.00,,,0.00,WUHU216HW,2013-02-01 02:38:00,
2013-01-31 19:39:00,51.1,27.6,30.06,North,0,0.0,0.0,40,0.00,,,0.00,WUHU216HW,2013-02-01 02:39:00,
2013-01-31 19:40:00,51.1,27.6,30.06,North,0,0.0,0.0,40,0.00,,,0.00,WUHU216HW,2013-02-01 02:40:00,
2013-01-31 19:42:00,51.1,27.6,30.06,North,0,0.0,0.0,40,0.00,,,0.00,WUHU216HW,2013-02-01 02:42:00,
2013-01-31 19:43:00,50.9,27.5,30.06,North,0,0.0,0.0,40,0.00,,,0.00,WUHU216HW,2013-02-01 02:43:00,
2013-01-31 19:44:00,50.9,27.5,30.07,North,0,0.0,0.0,40,0.00,,,0.00,WUHU216HW,2013-02-01 02:44:00,
2013-01-31 19:46:00,50.9,27.5,30.07,North,0,0.0,0.0,40,0.00,,,0.00,WUHU216HW,2013-02-01 02:46:00,
2013-01-31 19:48:00,50.8,27.3,30.07,North,0,0.0,0.0,40,0.00,,,0.00,WUHU216HW,2013-02-01 02:48:00,
2013-01-31 19:50:00,50.8,27.8,30.07,North,0,0.0,0.0,41,0.00,,,0.00,WUHU216HW,2013-02-01 02:50:00,
2013-01-31 19:51:00,50.6,27.7,30.07,North,0,0.0,0.0,41,0.00,,,0.00,WUHU216HW,2013-02-01 02:51:00,
2013-01-31 19:53:00,50.4,27.6,30.07,North,0,0.0,0.0,41,0.00,,,0.00,WUHU216HW,2013-02-01 02:53:00,
2013-01-31 19:54:00,50.2,27.4,30.07,North,0,0.0,0.0,41,0.00,,,0.00,WUHU216HW,2013-02-01 02:54:00,
2013-01-31 19:55:00,50.2,27.4,30.07,North,0,0.0,0.0,41,0.00,,,0.00,WUHU216HW,2013-02-01 02:55:00,
2013-01-31 19:56:00,50.0,27.2,30.07,North,0,0.0,0.0,41,0.00,,,0.00,WUHU216HW,2013-02-01 02:56:00,
2013-01-31 19:58:00,50.0,27.7,30.07,North,0,0.0,0.0,42,0.00,,,0.00,WUHU216HW,2013-02-01 02:58:00,
2013-01-31 20:00:00,50.0,27.7,30.07,North,0,0.0,0.0,42,0.00,,,0.00,WUHU216HW,2013-02-01 03:00:00,
2013-01-31 20:02:00,50.0,27.2,30.07,North,0,0.0,0.0,41,0.00,,,0.00,WUHU216HW,2013-02-01 03:02:00,
2013-01-31 20:05:00,49.9,27.0,30.08,North,0,0.0,0.0,41,0.00,,,0.00,WUHU216HW,2013-02-01 03:05:00,
2013-01-31 20:06:00,49.7,26.9,30.08,North,0,0.0,0.0,41,0.00,,,0.00,WUHU216HW,2013-02-01 03:06:00,
2013-01-31 20:07:00,49.5,26.7,30.08,North,0,0.0,0.0,41,0.00,,,0.00,WUHU216HW,2013-02-01 03:07:00,
2013-01-31 20:10:00,49.3,26.6,30.08,North,0,0.0,0.0,41,0.00,,,0.00,WUHU216HW,2013-02-01 03:10:00,
2013-01-31 20:11:00,49.3,26.6,30.08,North,0,0.0,0.0,41,0.00,,,0.00,WUHU216HW,2013-02-01 03:11:00,
2013-01-31 20:12:00,49.3,26.6,30.08,North,0,0.0,0.0,41,0.00,,,0.00,WUHU216HW,2013-02-01 03:12:00,
2013-01-31 20:13:00,49.3,26.6,30.08,North,0,0.0,0.0,41,0.00,,,0.00,WUHU216HW,2013-02-01 03:13:00,
2013-01-31 20:16:00,49.1,26.9,30.08,North,0,0.0,0.0,42,0.00,,,0.00,WUHU216HW,2013-02-01 03:16:00,
2013-01-31 20:17:00,49.1,26.9,30.08,North,0,0.0,0.0,42,0.00,,,0.00,WUHU216HW,2013-02-01 03:17:00,
2013-01-31 20:19:00,49.1,26.9,30.08,North,0,0.0,0.0,42,0.00,,,0.00,WUHU216HW,2013-02-01 03:19:00,
2013-01-31 20:22:00,49.1,26.9,30.08,North,0,0.0,0.0,42,0.00,,,0.00,WUHU216HW,2013-02-01 03:22:00,
2013-01-31 20:23:00,49.1,26.9,30.08,North,0,0.0,0.0,42,0.00,,,0.00,WUHU216HW,2013-02-01 03:23:00,
2013-01-31 20:24:00,49.1,26.4,30.08,North,0,0.0,0.0,41,0.00,,,0.00,WUHU216HW,2013-02-01 03:24:00,
2013-01-31 20:28:00,49.0,26.2,30.08,North,0,0.0,0.0,41,0.00,,,0.00,WUHU216HW,2013-02-01 03:28:00,
2013-01-31 20:29:00,49.0,26.2,30.08,North,0,0.0,0.0,41,0.00,,,0.00,WUHU216HW,2013-02-01 03:29:00,
2013-01-31 20:33:00,49.1,26.4,30.09,North,0,0.0,0.0,41,0.00,,,0.00,WUHU216HW,2013-02-01 03:33:00,
2013-01-31 20:34:00,49.1,26.4,30.09,North,0,0.0,0.0,41,0.00,,,0.00,WUHU216HW,2013-02-01 03:34:00,
2013-01-31 20:37:00,49.1,26.4,30.09,North,0,0.0,0.0,41,0.00,,,0.00,WUHU216HW,2013-02-01 03:37:00,
2013-01-31 20:38:00,49.1,26.9,30.09,North,0,0.0,0.0,42,0.00,,,0.00,WUHU216HW,2013-02-01 03:38:00,
2013-01-31 20:39:00,49.1,26.4,30.09,North,0,0.0,0.0,41,0.00,,,0.00,WUHU216HW,2013-02-01 03:39:00,
2013-01-31 20:40:00,49.1,26.4,30.09,North,0,0.0,0.0,41,0.00,,,0.00,WUHU216HW,2013-02-01 03:40:00,
2013-01-31 20:42:00,49.0,26.7,30.09,North,0,0.0,0.0,42,0.00,,,0.00,WUHU216HW,2013-02-01 03:42:00,
2013-01-31 20:43:00,49.0,26.2,30.09,North,0,0.0,0.0,41,0.00,,,0.00,WUHU216HW,2013-02-01 03:43:00,
2013-01-31 20:44:00,49.0,26.7,30.09,North,0,0.0,0.0,42,0.00,,,0.00,WUHU216HW,2013-02-01 03:44:00,
2013-01-31 20:46:00,48.8,26.7,30.09,North,0,0.0,0.0,42,0.00,,,0.00,WUHU216HW,2013-02-01 03:46:00,
2013-01-31 20:48:00,48.6,26.5,30.09,North,0,0.0,0.0,42,0.00,,,0.00,WUHU216HW,2013-02-01 03:48:00,
2013-01-31 20:49:00,48.6,26.5,30.09,North,0,0.0,0.0,42,0.00,,,0.00,WUHU216HW,2013-02-01 03:49:00,
2013-01-31 20:50:00,48.6,26.5,30.09,North,0,0.0,0.0,42,0.00,,,0.00,WUHU216HW,2013-02-01 03:50:00,
2013-01-31 20:52:00,48.6,26.5,30.09,North,0,0.0,0.0,42,0.00,,,0.00,WUHU216HW,2013-02-01 03:52:00,
2013-01-31 20:53:00,48.6,26.5,30.09,North,0,0.0,0.0,42,0.00,,,0.00,WUHU216HW,2013-02-01 03:53:00,
2013-01-31 20:54:00,48.6,26.5,30.09,North,0,0.0,0.0,42,0.00,,,0.00,WUHU216HW,2013-02-01 03:54:00,
2013-01-31 20:55:00,48.6,26.5,30.09,North,0,0.0,0.0,42,0.00,,,0.00,WUHU216HW,2013-02-01 03:55:00,
2013-01-31 20:58:00,48.6,26.5,30.09,North,0,0.0,0.0,42,0.00,,,0.00,WUHU216HW,2013-02-01 03:58:00,
2013-01-31 20:59:00,48.6,26.5,30.09,North,0,0.0,0.0,42,0.00,,,0.00,WUHU216HW,2013-02-01 03:59:00,
2013-01-31 21:01:00,48.6,26.5,30.09,North,0,0.0,0.0,42,0.00,,,0.00,WUHU216HW,2013-02-01 04:01:00,
2013-01-31 21:03:00,48.4,26.3,30.09,North,0,0.0,0.0,42,0.00,,,0.00,WUHU216HW,2013-02-01 04:03:00,
2013-01-31 21:04:00,48.4,26.3,30.09,North,0,0.0,0.0,42,0.00,,,0.00,WUHU216HW,2013-02-01 04:04:00,
2013-01-31 21:06:00,48.2,26.6,30.09,North,0,0.0,0.0,43,0.00,,,0.00,WUHU216HW,2013-02-01 04:06:00,
2013-01-31 21:09:00,48.1,26.5,30.09,North,0,0.0,0.0,43,0.00,,,0.00,WUHU216HW,2013-02-01 04:09:00,
2013-01-31 21:11:00,47.9,26.3,30.09,North,0,0.0,0.0,43,0.00,,,0.00,WUHU216HW,2013-02-01 04:11:00,
2013-01-31 21:12:00,47.9,26.3,30.09,North,0,0.0,0.0,43,0.00,,,0.00,WUHU216HW,2013-02-01 04:12:00,
2013-01-31 21:14:00,47.9,26.3,30.09,North,0,0.0,0.0,43,0.00,,,0.00,WUHU216HW,2013-02-01 04:14:00,
2013-01-31 21:15:00,47.9,26.3,30.09,North,0,0.0,0.0,43,0.00,,,0.00,WUHU216HW,2013-02-01 04:15:00,
2013-01-31 21:17:00,47.7,26.2,30.09,North,0,0.0,0.0,43,0.00,,,0.00,WUHU216HW,2013-02-01 04:17:00,
2013-01-31 21:19:00,47.7,26.7,30.09,North,0,0.0,0.0,44,0.00,,,0.00,WUHU216HW,2013-02-01 04:19:00,
2013-01-31 21:21:00,47.5,26.6,30.09,North,0,0.0,0.0,44,0.00,,,0.00,WUHU216HW,2013-02-01 04:21:00,
2013-01-31 21:22:00,47.5,26.6,30.09,North,0,0.0,0.0,44,0.00,,,0.00,WUHU216HW,2013-02-01 04:22:00,
2013-01-31 21:23:00,47.5,26.6,30.09,North,0,0.0,0.0,44,0.00,,,0.00,WUHU216HW,2013-02-01 04:23:00,
2013-01-31 21:24:00,47.5,26.6,30.09,North,0,0.0,0.0,44,0.00,,,0.00,WUHU216HW,2013-02-01 04:24:00,
2013-01-31 21:27:00,47.3,26.4,30.09,North,0,0.0,0.0,44,0.00,,,0.00,WUHU216HW,2013-02-01 04:27:00,
2013-01-31 21:28:00,47.2,26.2,30.09,North,0,0.0,0.0,44,0.00,,,0.00,WUHU216HW,2013-02-01 04:28:00,
2013-01-31 21:29:00,47.2,26.2,30.09,North,0,0.0,0.0,44,0.00,,,0.00,WUHU216HW,2013-02-01 04:29:00,
2013-01-31 21:32:00,47.0,26.6,30.09,North,0,0.0,0.0,45,0.00,,,0.00,WUHU216HW,2013-02-01 04:32:00,
2013-01-31 21:33:00,47.0,26.6,30.09,North,0,0.0,0.0,45,0.00,,,0.00,WUHU216HW,2013-02-01 04:33:00,
2013-01-31 21:35:00,47.0,26.6,30.09,North,0,0.0,0.0,45,0.00,,,0.00,WUHU216HW,2013-02-01 04:35:00,
2013-01-31 21:37:00,46.8,26.5,30.09,North,0,0.0,0.0,45,0.00,,,0.00,WUHU216HW,2013-02-01 04:37:00,
2013-01-31 21:40:00,46.6,26.3,30.10,North,0,0.0,0.0,45,0.00,,,0.00,WUHU216HW,2013-02-01 04:40:00,
2013-01-31 21:41:00,46.6,26.3,30.10,North,0,0.0,0.0,45,0.00,,,0.00,WUHU216HW,2013-02-01 04:41:00,
2013-01-31 21:43:00,46.4,26.1,30.10,North,0,0.0,0.0,45,0.00,,,0.00,WUHU216HW,2013-02-01 04:43:00,
2013-01-31 21:45:00,46.4,26.1,30.10,North,0,0.0,0.0,45,0.00,,,0.00,WUHU216HW,2013-02-01 04:45:00,
2013-01-31 21:46:00,46.4,26.1,30.10,North,0,0.0,0.0,45,0.00,,,0.00,WUHU216HW,2013-02-01 04:46:00,
2013-01-31 21:47:00,46.4,26.6,30.10,North,0,0.0,0.0,46,0.00,,,0.00,WUHU216HW,2013-02-01 04:47:00,
2013-01-31 21:49:00,46.4,26.6,30.10,North,0,0.0,0.0,46,0.00,,,0.00,WUHU216HW,2013-02-01 04:49:00,
2013-01-31 21:51:00,46.3,26.5,30.10,North,0,0.0,0.0,46,0.00,,,0.00,WUHU216HW,2013-02-01 04:51:00,
2013-01-31 21:53:00,46.1,26.8,30.10,North,0,0.0,0.0,47,0.00,,,0.00,WUHU216HW,2013-02-01 04:53:00,
2013-01-31 21:54:00,46.1,26.8,30.09,North,0,0.0,0.0,47,0.00,,,0.00,WUHU216HW,2013-02-01 04:54:00,
2013-01-31 21:56:00,45.7,26.6,30.10,North,0,0.0,0.0,47,0.00,,,0.00,WUHU216HW,2013-02-01 04:56:00,
2013-01-31 21:58:00,45.7,26.6,30.10,North,0,0.0,0.0,47,0.00,,,0.00,WUHU216HW,2013-02-01 04:58:00,
2013-01-31 21:59:00,45.7,26.6,30.10,North,0,0.0,0.0,47,0.00,,,0.00,WUHU216HW,2013-02-01 04:59:00,
2013-01-31 22:00:00,45.7,26.6,30.10,North,0,0.0,0.0,47,0.00,,,0.00,WUHU216HW,2013-02-01 05:00:00,
2013-01-31 22:01:00,45.7,26.6,30.09,North,0,0.0,0.0,47,0.00,,,0.00,WUHU216HW,2013-02-01 05:01:00,
2013-01-31 22:03:00,45.5,26.4,30.09,North,0,0.0,0.0,47,0.00,,,0.00,WUHU216HW,2013-02-01 05:03:00,
2013-01-31 22:06:00,45.4,26.7,30.09,North,0,0.0,0.0,48,0.00,,,0.00,WUHU216HW,2013-02-01 05:06:00,
2013-01-31 22:07:00,45.2,26.0,30.09,North,0,0.0,0.0,47,0.00,,,0.00,WUHU216HW,2013-02-01 05:07:00,
2013-01-31 22:08:00,45.2,26.0,30.09,North,0,0.0,0.0,47,0.00,,,0.00,WUHU216HW,2013-02-01 05:08:00,
2013-01-31 22:11:00,45.0,26.5,30.10,North,0,0.0,0.0,48,0.00,,,0.00,WUHU216HW,2013-02-01 05:11:00,
2013-01-31 22:12:00,45.0,26.5,30.10,North,0,0.0,0.0,48,0.00,,,0.00,WUHU216HW,2013-02-01 05:12:00,
2013-01-31 22:13:00,45.0,26.5,30.09,North,0,0.0,0.0,48,0.00,,,0.00,WUHU216HW,2013-02-01 05:13:00,
2013-01-31 22:17:00,44.6,26.1,30.09,North,0,0.0,0.0,48,0.00,,,0.00,WUHU216HW,2013-02-01 05:17:00,
2013-01-31 22:18:00,44.6,26.1,30.09,North,0,0.0,0.0,48,0.00,,,0.00,WUHU216HW,2013-02-01 05:18:00,
2013-01-31 22:21:00,44.6,26.6,30.09,North,0,0.0,0.0,49,0.00,,,0.00,WUHU216HW,2013-02-01 05:21:00,
2013-01-31 22:22:00,44.5,26.5,30.09,North,0,0.0,0.0,49,0.00,,,0.00,WUHU216HW,2013-02-01 05:22:00,
2013-01-31 22:23:00,44.5,26.5,30.09,North,0,0.0,0.0,49,0.00,,,0.00,WUHU216HW,2013-02-01 05:23:00,
2013-01-31 22:27:00,44.3,26.3,30.10,North,0,0.0,0.0,49,0.00,,,0.00,WUHU216HW,2013-02-01 05:27:00,
2013-01-31 22:28:00,44.3,26.3,30.10,North,0,0.0,0.0,49,0.00,,,0.00,WUHU216HW,2013-02-01 05:28:00,
2013-01-31 22:30:00,44.3,26.8,30.09,North,0,0.0,0.0,50,0.00,,,0.00,WUHU216HW,2013-02-01 05:30:00,
2013-01-31 22:32:00,44.3,26.8,30.10,North,0,0.0,0.0,50,0.00,,,0.00,WUHU216HW,2013-02-01 05:32:00,
2013-01-31 22:33:00,44.3,26.8,30.10,North,0,0.0,0.0,50,0.00,,,0.00,WUHU216HW,2013-02-01 05:33:00,
2013-01-31 22:35:00,44.3,27.3,30.10,North,0,0.0,0.0,51,0.00,,,0.00,WUHU216HW,2013-02-01 05:35:00,
2013-01-31 22:37:00,44.3,27.3,30.09,North,0,0.0,0.0,51,0.00,,,0.00,WUHU216HW,2013-02-01 05:37:00,
2013-01-31 22:38:00,44.3,27.3,30.10,North,0,0.0,0.0,51,0.00,,,0.00,WUHU216HW,2013-02-01 05:38:00,
2013-01-31 22:40:00,44.3,27.3,30.09,North,0,0.0,0.0,51,0.00,,,0.00,WUHU216HW,2013-02-01 05:40:00,
2013-01-31 22:45:00,44.3,27.7,30.09,North,0,0.0,0.0,52,0.00,,,0.00,WUHU216HW,2013-02-01 05:45:00,
2013-01-31 22:47:00,44.3,27.7,30.09,North,0,0.0,0.0,52,0.00,,,0.00,WUHU216HW,2013-02-01 05:47:00,
2013-01-31 22:51:00,44.3,27.7,30.09,North,0,0.0,0.0,52,0.00,,,0.00,WUHU216HW,2013-02-01 05:51:00,
2013-01-31 22:53:00,44.3,27.7,30.10,North,0,0.0,0.0,52,0.00,,,0.00,WUHU216HW,2013-02-01 05:53:00,
2013-01-31 22:56:00,44.3,27.7,30.09,North,0,0.0,0.0,52,0.00,,,0.00,WUHU216HW,2013-02-01 05:56:00,
2013-01-31 22:57:00,44.3,27.7,30.09,North,0,0.0,0.0,52,0.00,,,0.00,WUHU216HW,2013-02-01 05:57:00,
2013-01-31 22:58:00,44.3,27.7,30.09,North,0,0.0,0.0,52,0.00,,,0.00,WUHU216HW,2013-02-01 05:58:00,
2013-01-31 23:01:00,44.1,27.5,30.09,North,0,0.0,0.0,52,0.00,,,0.00,WUHU216HW,2013-02-01 06:01:00,
2013-01-31 23:02:00,44.3,27.7,30.09,North,0,0.0,0.0,52,0.00,,,0.00,WUHU216HW,2013-02-01 06:02:00,
2013-01-31 23:03:00,44.1,27.5,30.09,North,0,0.0,0.0,52,0.00,,,0.00,WUHU216HW,2013-02-01 06:03:00,
2013-01-31 23:06:00,44.1,27.5,30.09,North,0,0.0,0.0,52,0.00,,,0.00,WUHU216HW,2013-02-01 06:06:00,
2013-01-31 23:08:00,44.1,27.5,30.09,North,0,0.0,0.0,52,0.00,,,0.00,WUHU216HW,2013-02-01 06:08:00,
2013-01-31 23:09:00,44.3,27.7,30.09,North,0,0.0,0.0,52,0.00,,,0.00,WUHU216HW,2013-02-01 06:09:00,
2013-01-31 23:11:00,44.3,27.7,30.09,North,0,0.0,0.0,52,0.00,,,0.00,WUHU216HW,2013-02-01 06:11:00,
2013-01-31 23:13:00,44.3,27.7,30.09,North,0,0.0,0.0,52,0.00,,,0.00,WUHU216HW,2013-02-01 06:13:00,
2013-01-31 23:14:00,44.3,27.7,30.09,North,0,0.0,0.0,52,0.00,,,0.00,WUHU216HW,2013-02-01 06:14:00,
2013-01-31 23:17:00,44.3,27.7,30.09,North,0,0.0,0.0,52,0.00,,,0.00,WUHU216HW,2013-02-01 06:17:00,
2013-01-31 23:19:00,44.1,27.2,30.09,North,0,0.0,0.0,51,0.00,,,0.00,WUHU216HW,2013-02-01 06:19:00,
2013-01-31 23:20:00,44.1,27.2,30.09,North,0,0.0,0.0,51,0.00,,,0.00,WUHU216HW,2013-02-01 06:20:00,
2013-01-31 23:22:00,44.1,27.2,30.09,North,0,0.0,0.0,51,0.00,,,0.00,WUHU216HW,2013-02-01 06:22:00,
2013-01-31 23:24:00,44.1,27.2,30.09,North,0,0.0,0.0,51,0.00,,,0.00,WUHU216HW,2013-02-01 06:24:00,
2013-01-31 23:27:00,43.9,27.0,30.09,North,0,0.0,0.0,51,0.00,,,0.00,WUHU216HW,2013-02-01 06:27:00,
2013-01-31 23:28:00,43.9,27.0,30.09,North,0,0.0,0.0,51,0.00,,,0.00,WUHU216HW,2013-02-01 06:28:00,
2013-01-31 23:30:00,43.9,27.0,30.09,North,0,0.0,0.0,51,0.00,,,0.00,WUHU216HW,2013-02-01 06:30:00,
2013-01-31 23:32:00,43.9,27.0,30.09,North,0,0.0,0.0,51,0.00,,,0.00,WUHU216HW,2013-02-01 06:32:00,
2013-01-31 23:34:00,43.9,27.0,30.09,North,0,0.0,0.0,51,0.00,,,0.00,WUHU216HW,2013-02-01 06:34:00,
2013-01-31 23:35:00,43.9,27.0,30.09,North,0,0.0,0.0,51,0.00,,,0.00,WUHU216HW,2013-02-01 06:35:00,
2013-01-31 23:38:00,44.1,27.2,30.09,North,0,0.0,0.0,51,0.00,,,0.00,WUHU216HW,2013-02-01 06:38:00,
2013-01-31 23:40:00,43.9,27.0,30.09,North,0,0.0,0.0,51,0.00,,,0.00,WUHU216HW,2013-02-01 06:40:00,
2013-01-31 23:43:00,43.9,27.5,30.09,North,0,0.0,0.0,52,0.00,,,0.00,WUHU216HW,2013-02-01 06:43:00,
2013-01-31 23:44:00,43.9,27.5,30.09,North,0,0.0,0.0,52,0.00,,,0.00,WUHU216HW,2013-02-01 06:44:00,
2013-01-31 23:45:00,43.9,27.5,30.09,North,0,0.0,0.0,52,0.00,,,0.00,WUHU216HW,2013-02-01 06:45:00,
2013-01-31 23:47:00,43.7,27.3,30.09,North,0,0.0,0.0,52,0.00,,,0.00,WUHU216HW,2013-02-01 06:47:00,
2013-01-31 23:48:00,43.6,27.6,30.09,North,0,0.0,0.0,53,0.00,,,0.00,WUHU216HW,2013-02-01 06:48:00,
2013-01-31 23:49:00,43.6,27.6,30.09,North,0,0.0,0.0,53,0.00,,,0.00,WUHU216HW,2013-02-01 06:49:00,
2013-01-31 23:50:00,43.4,27.4,30.09,North,0,0.0,0.0,53,0.00,,,0.00,WUHU216HW,2013-02-01 06:50:00,
2013-01-31 23:52:00,43.2,27.2,30.09,North,0,0.0,0.0,53,0.00,,,0.00,WUHU216HW,2013-02-01 06:52:00,
2013-01-31 23:54:00,43.0,27.0,30.09,North,0,0.0,0.0,53,0.00,,,0.00,WUHU216HW,2013-02-01 06:54:00,
2013-01-31 23:55:00,43.0,27.0,30.09,North,0,0.0,0.0,53,0.00,,,0.00,WUHU216HW,2013-02-01 06:55:00,
2013-01-31 23:56:00,43.0,27.0,30.09,North,0,0.0,0.0,53,0.00,,,0.00,WUHU216HW,2013-02-01 06:56:00,
2013-01-31 23:57:00,43.2,27.2,30.09,North,0,0.0,0.0,53,0.00,,,0.00,WUHU216HW,2013-02-01 06:57:00,
2013-01-31 23:59:00,43.0,27.0,30.09,North,0,0.0,0.0,53,0.00,,,0.00,WUHU216HW,2013-02-01 06:59:00,